GW6444 Weather Reports


time (UTC)temp
C
wind
direction
speed
KPH
gust
KPH
rain 1hr
cm
rain 24hr
cm
rain mn
cm
humidity
%
barometer
mb
20260906220536 33 23 1.6 19.3 0.00 0.00 0.00 30 1015.3
20260906220417 33 49 1.6 19.3 0.00 0.00 0.00 30 1015.3
20260906220316 33 26 4.8 19.3 0.00 0.00 0.00 30 1015.3
20260906220311 33 355 9.7 19.3 0.00 0.00 0.00 30 1015.3
20260906220259 33 349 9.7 19.3 0.00 0.00 0.00 29 1015.3
20260906220220 33 11 3.2 16.1 0.00 0.00 0.00 30 1015.3
20260906215925 33 336 1.6 6.4 0.00 0.00 0.00 30 1015.3
20260906215830 33 17 1.6 12.9 0.00 0.00 0.00 30 1015.3
20260906215724 33 326 1.6 16.1 0.00 0.00 0.00 30 1015.4
20260906215632 33 17 1.6 16.1 0.00 0.00 0.00 30 1015.3
20260906215541 33 355 1.6 16.1 0.00 0.00 0.00 30 1015.3
20260906215416 33 115 1.6 16.1 0.00 0.00 0.00 30 1015.3
20260906215343 33 82 1.6 16.1 0.00 0.00 0.00 30 1015.3
20260906215229 33 287 1.6 16.1 0.00 0.00 0.00 30 1015.4
20260906215121 33 17 4.8 16.1 0.00 0.00 0.00 30 1015.5
20260906215040 33 84 8.0 16.1 0.00 0.00 0.00 30 1015.5
20260906214919 33 5 6.4 16.1 0.00 0.00 0.00 31 1015.4
20260906214833 33 343 4.8 12.9 0.00 0.00 0.00 31 1015.5
20260906214747 33 26 4.8 12.9 0.00 0.00 0.00 31 1015.4
20260906214742 33 355 4.8 12.9 0.00 0.00 0.00 31 1015.4
20260906214724 32 35 3.2 14.5 0.00 0.00 0.00 31 1015.4
20260906214439 32 9 3.2 14.5 0.00 0.00 0.00 31 1015.5
20260906214331 32 31 1.6 14.5 0.00 0.00 0.00 31 1015.5
20260906214232 32 5 3.2 14.5 0.00 0.00 0.00 31 1015.5
20260906214128 32 112 4.8 14.5 0.00 0.00 0.00 31 1015.6
20260906214023 32 108 3.2 14.5 0.00 0.00 0.00 31 1015.6
20260906213933 32 24 4.8 14.5 0.00 0.00 0.00 31 1015.6
20260906213840 32 67 8.0 14.5 0.00 0.00 0.00 31 1015.6
20260906213718 32 344 4.8 14.5 0.00 0.00 0.00 31 1015.6
20260906213638 32 254 4.8 14.5 0.00 0.00 0.00 31 1015.7
20260906213532 32 245 8.0 14.5 0.00 0.00 0.00 31 1015.6
20260906213432 32 290 8.0 16.1 0.00 0.00 0.00 31 1015.6
20260906213340 32 234 4.8 16.1 0.00 0.00 0.00 31 1015.6
20260906213234 32 336 4.8 16.1 0.00 0.00 0.00 31 1015.6
20260906213229 32 315 6.4 16.1 0.00 0.00 0.00 31 1015.7
20260906213148 32 17 6.4 16.1 0.00 0.00 0.00 31 1015.7
20260906212918 32 338 6.4 16.1 0.00 0.00 0.00 31 1015.7
20260906212822 32 360 6.4 16.1 0.00 0.00 0.00 31 1015.7
20260906212719 32 306 8.0 16.1 0.00 0.00 0.00 31 1015.7
20260906212629 31 332 6.4 20.9 0.00 0.00 0.00 31 1015.8
20260906212528 31 328 4.8 20.9 0.00 0.00 0.00 31 1015.6
20260906212417 31 312 6.4 20.9 0.00 0.00 0.00 31 1015.8
20260906212342 31 40 8.0 20.9 0.00 0.00 0.00 31 1015.8
20260906212242 31 19 8.0 20.9 0.00 0.00 0.00 31 1015.8
20260906212131 31 55 6.4 20.9 0.00 0.00 0.00 31 1015.8
20260906212020 31 331 6.4 20.9 0.00 0.00 0.00 31 1015.8
20260906211931 31 277 8.0 20.9 0.00 0.00 0.00 31 1015.8
20260906211838 31 300 11.3 20.9 0.00 0.00 0.00 31 1015.9
20260906211743 31 290 11.3 20.9 0.00 0.00 0.00 31 1016.0
20260906211740 31 292 8.0 16.1 0.00 0.00 0.00 32 1016.0
20260906211730 31 307 6.4 16.1 0.00 0.00 0.00 31 1016.0
20260906211440 31 297 4.8 16.1 0.00 0.00 0.00 32 1016.0
20260906211341 31 5 4.8 16.1 0.00 0.00 0.00 32 1016.0
20260906211232 31 360 4.8 16.1 0.00 0.00 0.00 32 1016.0
20260906211124 31 296 6.4 16.1 0.00 0.00 0.00 32 1016.0
20260906211048 31 5 6.4 14.5 0.00 0.00 0.00 32 1016.0
20260906210939 31 24 6.4 16.1 0.00 0.00 0.00 33 1015.9
20260906210821 31 257 6.4 20.9 0.00 0.00 0.00 33 1016.0
20260906210742 31 279 6.4 20.9 0.00 0.00 0.00 34 1016.0
20260906210642 31 257 4.8 22.5 0.00 0.00 0.00 33 1016.0
20260906210526 31 253 6.4 22.5 0.00 0.00 0.00 33 1016.1
20260906210425 31 263 9.7 22.5 0.00 0.00 0.00 33 1016.0
20260906210342 31 279 9.7 22.5 0.00 0.00 0.00 33 1016.1
20260906210302 31 277 9.7 22.5 0.00 0.00 0.00 33 1016.1
20260906210256 31 255 9.7 22.5 0.00 0.00 0.00 33 1016.1
20260906210232 31 301 11.3 22.5 0.00 0.00 0.00 34 1016.2
20260906205943 31 273 14.5 22.5 0.00 0.00 0.00 33 1016.2
20260906205831 31 287 11.3 22.5 0.00 0.00 0.00 34 1016.2
20260906205740 31 254 6.4 17.7 0.00 0.00 0.00 33 1016.2
20260906205628 31 290 6.4 17.7 0.00 0.00 0.00 33 1016.2
20260906205518 31 276 6.4 17.7 0.00 0.00 0.00 33 1016.2
20260906205442 31 284 6.4 20.9 0.00 0.00 0.00 32 1016.2
20260906205341 31 246 6.4 20.9 0.00 0.00 0.00 32 1016.2
20260906205245 31 259 6.4 20.9 0.00 0.00 0.00 32 1016.2
20260906205141 31 251 9.7 20.9 0.00 0.00 0.00 33 1016.3
20260906205019 31 280 9.7 20.9 0.00 0.00 0.00 32 1016.2
20260906204940 31 281 8.0 20.9 0.00 0.00 0.00 33 1016.2
20260906204834 31 251 6.4 20.9 0.00 0.00 0.00 33 1016.2
20260906204741 31 232 11.3 20.9 0.00 0.00 0.00 33 1016.3
20260906204732 31 265 12.9 20.9 0.00 0.00 0.00 33 1016.2
20260906204648 31 269 8.0 19.3 0.00 0.00 0.00 33 1016.3
20260906204434 31 277 6.4 19.3 0.00 0.00 0.00 33 1016.3
20260906204318 31 297 6.4 19.3 0.00 0.00 0.00 33 1016.3
20260906204232 31 301 9.7 19.3 0.00 0.00 0.00 33 1016.3
20260906204135 31 243 9.7 19.3 0.00 0.00 0.00 33 1016.3
20260906204035 31 241 9.7 19.3 0.00 0.00 0.00 32 1016.3
20260906203924 31 40 9.7 19.3 0.00 0.00 0.00 32 1016.3
20260906203833 31 296 6.4 19.3 0.00 0.00 0.00 32 1016.3
20260906203734 31 333 3.2 14.5 0.00 0.00 0.00 32 1016.2
20260906203628 31 231 0.0 14.5 0.00 0.00 0.00 33 1016.3
20260906203525 31 66 0.0 14.5 0.00 0.00 0.00 33 1016.3
20260906203446 31 355 0.0 14.5 0.00 0.00 0.00 33 1016.4
20260906203343 31 292 1.6 14.5 0.00 0.00 0.00 33 1016.5
20260906203236 31 128 3.2 14.5 0.00 0.00 0.00 33 1016.5
20260906203231 31 5 6.4 14.5 0.00 0.00 0.00 32 1016.5
20260906203218 31 332 4.8 14.5 0.00 0.00 0.00 33 1016.5
20260906202928 31 343 1.6 8.0 0.00 0.00 0.00 33 1016.3
20260906202825 31 333 1.6 11.3 0.00 0.00 0.00 34 1016.3
20260906202729 31 219 1.6 11.3 0.00 0.00 0.00 33 1016.3
20260906202629 31 352 1.6 12.9 0.00 0.00 0.00 34 1016.4
20260906202518 31 28 3.2 12.9 0.00 0.00 0.00 34 1016.4
20260906202440 31 29 3.2 12.9 0.00 0.00 0.00 34 1016.5
20260906202317 31 300 3.2 12.9 0.00 0.00 0.00 34 1016.4
20260906202235 30 15 3.2 17.7 0.00 0.00 0.00 33 1016.4
20260906202125 30 14 3.2 17.7 0.00 0.00 0.00 34 1016.5
20260906202021 30 51 4.8 17.7 0.00 0.00 0.00 34 1016.4
20260906201931 30 75 8.0 17.7 0.00 0.00 0.00 34 1016.5
20260906201827 30 31 8.0 17.7 0.00 0.00 0.00 34 1016.5
20260906201733 30 360 8.0 17.7 0.00 0.00 0.00 34 1016.5
20260906201724 30 36 6.4 17.7 0.00 0.00 0.00 34 1016.4
20260906201718 30 26 8.0 17.7 0.00 0.00 0.00 34 1016.5
20260906201435 30 285 8.0 17.7 0.00 0.00 0.00 34 1016.5
20260906201331 30 245 4.8 17.7 0.00 0.00 0.00 34 1016.5
20260906201240 30 15 3.2 16.1 0.00 0.00 0.00 35 1016.5
20260906201135 30 288 4.8 16.1 0.00 0.00 0.00 34 1016.5
20260906201020 30 32 6.4 16.1 0.00 0.00 0.00 34 1016.6
20260906200932 30 5 6.4 16.1 0.00 0.00 0.00 35 1016.6
20260906200841 30 309 6.4 19.3 0.00 0.00 0.00 34 1016.7
20260906200741 30 360 6.4 19.3 0.00 0.00 0.00 35 1016.8
20260906200642 30 11 6.4 19.3 0.00 0.00 0.00 35 1016.7
20260906200532 30 11 4.8 19.3 0.00 0.00 0.00 35 1016.7
20260906200443 30 5 4.8 19.3 0.00 0.00 0.00 35 1016.7
20260906200326 30 338 4.8 19.3 0.00 0.00 0.00 35 1016.7
20260906200301 30 315 6.4 19.3 0.00 0.00 0.00 35 1016.7
20260906200253 30 313 8.0 19.3 0.00 0.00 0.00 36 1016.7
20260906200219 30 341 6.4 19.3 0.00 0.00 0.00 36 1016.7
20260906195928 30 333 1.6 16.1 0.00 0.00 0.00 36 1016.8
20260906195821 30 5 3.2 19.3 0.00 0.00 0.00 36 1016.7
20260906195718 29 15 3.2 19.3 0.00 0.00 0.00 36 1016.8
20260906195618 30 11 4.8 19.3 0.00 0.00 0.00 36 1016.9
20260906195523 30 297 4.8 22.5 0.00 0.00 0.00 36 1016.8
20260906195439 30 327 3.2 22.5 0.00 0.00 0.00 36 1016.8
20260906195341 30 285 4.8 22.5 0.00 0.00 0.00 36 1016.9
20260906195217 30 326 6.4 22.5 0.00 0.00 0.00 36 1016.8
20260906195143 30 254 8.0 22.5 0.00 0.00 0.00 36 1016.9
20260906195028 30 346 9.7 22.5 0.00 0.00 0.00 36 1016.9
20260906194918 30 336 6.4 22.5 0.00 0.00 0.00 36 1016.9
20260906194841 30 360 9.7 22.5 0.00 0.00 0.00 36 1016.9
20260906194731 30 269 6.4 22.5 0.00 0.00 0.00 36 1016.9
20260906194725 30 298 1.6 9.7 0.00 0.00 0.00 36 1016.8
20260906194718 29 320 1.6 9.7 0.00 0.00 0.00 36 1016.8
20260906194432 29 331 3.2 12.9 0.00 0.00 0.00 36 1016.9
20260906194327 29 302 4.8 16.1 0.00 0.00 0.00 36 1017.0
20260906194218 29 340 4.8 16.1 0.00 0.00 0.00 36 1017.0
20260906194123 29 326 4.8 16.1 0.00 0.00 0.00 36 1017.0
20260906194031 29 327 4.8 16.1 0.00 0.00 0.00 36 1017.0
20260906193946 29 360 4.8 16.1 0.00 0.00 0.00 36 1017.1
20260906193829 29 360 6.4 16.1 0.00 0.00 0.00 36 1016.9
20260906193728 29 10 6.4 16.1 0.00 0.00 0.00 36 1017.0
20260906193640 29 17 8.0 16.1 0.00 0.00 0.00 36 1017.1
20260906193544 29 320 4.8 16.1 0.00 0.00 0.00 36 1017.0
20260906193442 29 341 6.4 14.5 0.00 0.00 0.00 36 1017.0
20260906193344 29 305 8.0 14.5 0.00 0.00 0.00 35 1017.2
20260906193241 29 274 6.4 14.5 0.00 0.00 0.00 36 1017.0
20260906193230 29 16 3.2 12.9 0.00 0.00 0.00 36 1017.2
20260906193219 29 240 1.6 12.9 0.00 0.00 0.00 36 1017.2
20260906192943 29 280 1.6 12.9 0.00 0.00 0.00 36 1017.2
20260906192832 29 355 0.0 12.9 0.00 0.00 0.00 36 1017.2
20260906192728 28 111 1.6 12.9 0.00 0.00 0.00 37 1017.2
20260906192643 28 48 3.2 12.9 0.00 0.00 0.00 37 1017.2
20260906192525 28 17 3.2 12.9 0.00 0.00 0.00 37 1017.2
20260906192443 28 11 4.8 12.9 0.00 0.00 0.00 37 1017.2
20260906192340 28 39 6.4 16.1 0.00 0.00 0.00 37 1017.2
20260906192217 28 30 6.4 16.1 0.00 0.00 0.00 38 1017.1
20260906192140 28 328 6.4 17.7 0.00 0.00 0.00 38 1017.2
20260906192028 28 326 6.4 17.7 0.00 0.00 0.00 39 1017.2
20260906191929 28 290 3.2 17.7 0.00 0.00 0.00 39 1017.2
20260906191817 28 245 1.6 17.7 0.00 0.00 0.00 39 1017.2
20260906191741 28 250 4.8 17.7 0.00 0.00 0.00 38 1017.3
20260906191727 28 299 9.7 17.7 0.00 0.00 0.00 38 1017.4
20260906191710 28 312 9.7 17.7 0.00 0.00 0.00 38 1017.3
20260906191443 28 317 9.7 17.7 0.00 0.00 0.00 38 1017.4
20260906191326 28 301 8.0 17.7 0.00 0.00 0.00 37 1017.4
20260906191225 28 327 8.0 16.1 0.00 0.00 0.00 37 1017.4
20260906191144 28 310 3.2 16.1 0.00 0.00 0.00 38 1017.4
20260906191032 28 98 1.6 9.7 0.00 0.00 0.00 38 1017.4
20260906190936 28 87 1.6 9.7 0.00 0.00 0.00 38 1017.3
20260906190825 28 5 3.2 9.7 0.00 0.00 0.00 38 1017.4
20260906190741 28 5 3.2 9.7 0.00 0.00 0.00 38 1017.4
20260906190631 28 292 4.8 9.7 0.00 0.00 0.00 38 1017.4
20260906190533 28 281 3.2 9.7 0.00 0.00 0.00 38 1017.4
20260906190429 28 230 3.2 9.7 0.00 0.00 0.00 38 1017.5
20260906190318 28 348 4.8 12.9 0.00 0.00 0.00 38 1017.5
20260906190307 28 18 3.2 16.1 0.00 0.00 0.00 39 1017.5
20260906190231 27 5 3.2 16.1 0.00 0.00 0.00 39 1017.7
20260906185933 27 299 4.8 16.1 0.00 0.00 0.00 39 1017.5
20260906185837 27 251 4.8 16.1 0.00 0.00 0.00 40 1017.6
20260906185736 27 280 1.6 16.1 0.00 0.00 0.00 40 1017.6
20260906185642 27 284 3.2 16.1 0.00 0.00 0.00 40 1017.6
20260906185528 27 252 6.4 16.1 0.00 0.00 0.00 40 1017.6
20260906185430 27 302 9.7 16.1 0.00 0.00 0.00 40 1017.6
20260906185320 27 253 11.3 16.1 0.00 0.00 0.00 40 1017.7
20260906185227 27 271 9.7 16.1 0.00 0.00 0.00 40 1017.6
20260906185127 27 254 8.0 16.1 0.00 0.00 0.00 40 1017.6
20260906185028 27 246 8.0 16.1 0.00 0.00 0.00 40 1017.8
20260906184941 27 300 6.4 16.1 0.00 0.00 0.00 40 1017.7
20260906184842 27 204 3.2 16.1 0.00 0.00 0.00 41 1017.7
20260906184740 27 153 4.8 16.1 0.00 0.00 0.00 41 1017.7
20260906184735 27 148 4.8 16.1 0.00 0.00 0.00 41 1017.7
20260906184718 27 124 3.2 16.1 0.00 0.00 0.00 41 1017.8
20260906184425 27 221 6.4 16.1 0.00 0.00 0.00 41 1017.9
20260906184324 27 292 8.0 16.1 0.00 0.00 0.00 41 1017.9
20260906184218 27 301 4.8 16.1 0.00 0.00 0.00 41 1017.9
20260906184130 27 348 3.2 14.5 0.00 0.00 0.00 41 1017.8
20260906184031 27 348 4.8 14.5 0.00 0.00 0.00 41 1017.9
20260906183918 27 288 6.4 14.5 0.00 0.00 0.00 41 1017.9
20260906183819 27 326 6.4 14.5 0.00 0.00 0.00 41 1017.9
20260906183740 27 314 3.2 14.5 0.00 0.00 0.00 42 1018.0
20260906183619 27 285 0.0 12.9 0.00 0.00 0.00 42 1018.0
20260906183531 27 329 0.0 12.9 0.00 0.00 0.00 42 1017.9
20260906183417 27 54 1.6 12.9 0.00 0.00 0.00 42 1018.0
20260906183331 27 26 3.2 12.9 0.00 0.00 0.00 42 1018.0
20260906183245 27 355 4.8 12.9 0.00 0.00 0.00 42 1018.1
20260906183241 27 310 6.4 12.9 0.00 0.00 0.00 41 1018.1
20260906183148 27 297 6.4 12.9 0.00 0.00 0.00 42 1018.1
20260906182922 28 289 6.4 12.9 0.00 0.00 0.00 42 1018.1
20260906182842 28 355 6.4 12.9 0.00 0.00 0.00 42 1018.0
20260906182724 28 275 3.2 9.7 0.00 0.00 0.00 42 1018.1
20260906182638 28 88 1.6 4.8 0.00 0.00 0.00 42 1018.1
20260906182523 27 287 1.6 4.8 0.00 0.00 0.00 43 1018.1
20260906182442 27 329 1.6 4.8 0.00 0.00 0.00 42 1018.1
20260906182317 27 278 0.0 4.8 0.00 0.00 0.00 42 1018.1
20260906182240 27 11 0.0 4.8 0.00 0.00 0.00 42 1018.1
20260906182136 27 65 0.0 6.4 0.00 0.00 0.00 42 1018.2
20260906182023 27 77 0.0 8.0 0.00 0.00 0.00 41 1018.1
20260906181927 27 40 0.0 9.7 0.00 0.00 0.00 42 1018.2
20260906181824 27 45 0.0 9.7 0.00 0.00 0.00 43 1018.1
20260906181744 27 13 0.0 9.7 0.00 0.00 0.00 43 1018.2
20260906181737 27 13 1.6 9.7 0.00 0.00 0.00 43 1018.2
20260906181720 26 5 3.2 9.7 0.00 0.00 0.00 43 1018.2
20260906181422 26 37 3.2 9.7 0.00 0.00 0.00 42 1018.3
20260906181338 26 15 3.2 9.7 0.00 0.00 0.00 43 1018.3
20260906181218 26 334 4.8 9.7 0.00 0.00 0.00 43 1018.3
20260906181133 26 319 4.8 11.3 0.00 0.00 0.00 43 1018.3
20260906181035 26 290 4.8 11.3 0.00 0.00 0.00 43 1018.4
20260906180924 26 281 4.8 9.7 0.00 0.00 0.00 44 1018.4
20260906180825 26 304 3.2 9.7 0.00 0.00 0.00 44 1018.4
20260906180732 26 309 3.2 8.0 0.00 0.00 0.00 44 1018.4
20260906180625 26 302 3.2 8.0 0.00 0.00 0.00 44 1018.5
20260906180540 26 302 3.2 8.0 0.00 0.00 0.00 43 1018.4
20260906180444 26 336 4.8 8.0 0.00 0.00 0.00 44 1018.5
20260906180317 26 10 1.6 8.0 0.00 0.00 0.00 44 1018.5
20260906180306 26 9 1.6 14.5 0.00 0.00 0.00 45 1018.5
20260906180148 26 335 3.2 14.5 0.00 0.00 0.00 45 1018.6
20260906175944 26 348 4.8 14.5 0.00 0.00 0.00 45 1018.6
20260906175842 26 16 3.2 14.5 0.00 0.00 0.00 45 1018.5
20260906175720 25 5 3.2 14.5 0.00 0.00 0.00 46 1018.5
20260906175618 25 346 4.8 14.5 0.00 0.00 0.00 46 1018.6
20260906175525 25 309 6.4 14.5 0.00 0.00 0.00 46 1018.5
20260906175418 25 302 6.4 14.5 0.00 0.00 0.00 46 1018.6
20260906175326 25 346 6.4 12.9 0.00 0.00 0.00 46 1018.6
20260906175244 25 288 4.8 12.9 0.00 0.00 0.00 46 1018.6
20260906175129 25 282 6.4 12.9 0.00 0.00 0.00 45 1018.6
20260906175041 25 300 8.0 12.9 0.00 0.00 0.00 45 1018.7
20260906174923 25 274 4.8 12.9 0.00 0.00 0.00 45 1018.7
20260906174825 25 317 3.2 11.3 0.00 0.00 0.00 45 1018.8
20260906174734 25 194 3.2 11.3 0.00 0.00 0.00 45 1018.8
20260906174728 25 273 3.2 11.3 0.00 0.00 0.00 46 1018.8
20260906174626 25 196 4.8 12.9 0.00 0.00 0.00 46 1018.9
20260906174419 25 309 4.8 12.9 0.00 0.00 0.00 46 1018.9
20260906174334 25 290 3.2 12.9 0.00 0.00 0.00 46 1018.9
20260906174227 25 327 1.6 12.9 0.00 0.00 0.00 46 1019.0
20260906174143 25 318 3.2 12.9 0.00 0.00 0.00 46 1019.0
20260906174027 25 275 3.2 12.9 0.00 0.00 0.00 46 1019.0
20260906173933 25 246 4.8 12.9 0.00 0.00 0.00 46 1019.1
20260906173833 25 226 8.0 12.9 0.00 0.00 0.00 46 1019.0
20260906173733 25 294 6.4 12.9 0.00 0.00 0.00 46 1019.0
20260906173617 25 265 3.2 11.3 0.00 0.00 0.00 47 1019.0
20260906173521 25 225 3.2 11.3 0.00 0.00 0.00 46 1019.0
20260906173431 25 234 4.8 11.3 0.00 0.00 0.00 46 1019.1
20260906173343 25 245 6.4 11.3 0.00 0.00 0.00 46 1019.1
20260906173241 25 222 6.4 11.3 0.00 0.00 0.00 46 1019.1
20260906173229 26 239 6.4 11.3 0.00 0.00 0.00 46 1019.1
20260906173217 26 219 4.8 9.7 0.00 0.00 0.00 46 1019.1
20260906172918 26 225 3.2 8.0 0.00 0.00 0.00 46 1019.1
20260906172828 26 171 1.6 6.4 0.00 0.00 0.00 47 1019.3
20260906172743 26 260 1.6 6.4 0.00 0.00 0.00 47 1019.3
20260906172620 25 284 1.6 6.4 0.00 0.00 0.00 47 1019.3
20260906172529 25 335 1.6 6.4 0.00 0.00 0.00 47 1019.3
20260906172420 25 310 1.6 6.4 0.00 0.00 0.00 47 1019.3
20260906172334 25 5 1.6 9.7 0.00 0.00 0.00 47 1019.3
20260906172238 25 321 0.0 9.7 0.00 0.00 0.00 47 1019.3
20260906172131 25 20 0.0 9.7 0.00 0.00 0.00 48 1019.3
20260906172024 25 360 1.6 9.7 0.00 0.00 0.00 48 1019.4
20260906171924 25 352 3.2 9.7 0.00 0.00 0.00 48 1019.4
20260906171840 25 311 3.2 9.7 0.00 0.00 0.00 49 1019.3
20260906171750 25 291 3.2 9.7 0.00 0.00 0.00 48 1019.4
20260906171740 25 269 4.8 9.7 0.00 0.00 0.00 48 1019.5
20260906171724 25 278 3.2 9.7 0.00 0.00 0.00 48 1019.5
20260906171427 25 250 3.2 8.0 0.00 0.00 0.00 49 1019.5
20260906171341 25 348 4.8 8.0 0.00 0.00 0.00 48 1019.6
20260906171226 25 339 4.8 8.0 0.00 0.00 0.00 48 1019.5
20260906171118 25 296 4.8 8.0 0.00 0.00 0.00 49 1019.6
20260906171040 25 304 1.6 6.4 0.00 0.00 0.00 49 1019.6
20260906170942 25 23 1.6 6.4 0.00 0.00 0.00 49 1019.6
20260906170829 25 328 1.6 6.4 0.00 0.00 0.00 50 1019.6
20260906170743 25 327 1.6 6.4 0.00 0.00 0.00 50 1019.6
20260906170628 25 319 1.6 6.4 0.00 0.00 0.00 50 1019.7
20260906170524 25 298 0.0 6.4 0.00 0.00 0.00 50 1019.6
20260906170443 25 157 0.0 6.4 0.00 0.00 0.00 49 1019.6
20260906170337 24 155 1.6 6.4 0.00 0.00 0.00 49 1019.7
20260906170303 24 163 3.2 6.4 0.00 0.00 0.00 49 1019.6
20260906170257 24 177 3.2 6.4 0.00 0.00 0.00 50 1019.6
20260906170229 24 227 1.6 6.4 0.00 0.00 0.00 50 1019.8
20260906165928 24 200 1.6 6.4 0.00 0.00 0.00 50 1019.7
20260906165833 24 207 3.2 6.4 0.00 0.00 0.00 51 1019.8
20260906165726 24 259 1.6 4.8 0.00 0.00 0.00 51 1019.8
20260906165640 24 254 0.0 4.8 0.00 0.00 0.00 52 1019.8
20260906165540 24 265 1.6 4.8 0.00 0.00 0.00 52 1019.9
20260906165442 24 144 1.6 4.8 0.00 0.00 0.00 52 1019.9
20260906165318 23 277 1.6 6.4 0.00 0.00 0.00 53 1019.8
20260906165235 23 201 0.0 6.4 0.00 0.00 0.00 52 1019.8
20260906165127 23 298 1.6 6.4 0.00 0.00 0.00 52 1019.8
20260906165018 23 296 1.6 9.7 0.00 0.00 0.00 52 1019.9
20260906164920 23 248 1.6 9.7 0.00 0.00 0.00 53 1019.8
20260906164834 23 284 1.6 9.7 0.00 0.00 0.00 53 1020.0
20260906164739 23 276 1.6 9.7 0.00 0.00 0.00 52 1020.0
20260906164729 23 216 1.6 9.7 0.00 0.00 0.00 53 1020.1
20260906164718 23 254 1.6 9.7 0.00 0.00 0.00 53 1020.0
20260906164419 23 140 3.2 9.7 0.00 0.00 0.00 53 1020.0
20260906164324 23 155 4.8 9.7 0.00 0.00 0.00 53 1020.0
20260906164219 23 149 4.8 9.7 0.00 0.00 0.00 53 1020.1
20260906164119 23 162 1.6 9.7 0.00 0.00 0.00 53 1020.0
20260906164046 23 246 1.6 9.7 0.00 0.00 0.00 53 1020.1
20260906163940 23 219 1.6 9.7 0.00 0.00 0.00 54 1020.0
20260906163835 23 201 1.6 9.7 0.00 0.00 0.00 54 1020.0
20260906163734 23 180 1.6 9.7 0.00 0.00 0.00 54 1020.0
20260906163641 23 172 1.6 9.7 0.00 0.00 0.00 53 1019.9
20260906163523 23 193 3.2 9.7 0.00 0.00 0.00 53 1019.9
20260906163433 23 173 4.8 9.7 0.00 0.00 0.00 53 1019.8
20260906163325 23 163 3.2 9.7 0.00 0.00 0.00 53 1019.9
20260906163228 23 151 3.2 8.0 0.00 0.00 0.00 54 1020.0
20260906163224 23 185 3.2 8.0 0.00 0.00 0.00 54 1019.9
20260906163217 23 175 3.2 8.0 0.00 0.00 0.00 54 1019.9
20260906162939 23 169 3.2 8.0 0.00 0.00 0.00 53 1019.9
20260906162830 23 179 3.2 6.4 0.00 0.00 0.00 53 1019.9
20260906162725 23 171 0.0 6.4 0.00 0.00 0.00 54 1019.8
20260906162643 23 193 0.0 4.8 0.00 0.00 0.00 55 1019.8
20260906162530 23 196 0.0 6.4 0.00 0.00 0.00 55 1019.8
20260906162418 23 207 0.0 6.4 0.00 0.00 0.00 54 1019.8
20260906162342 23 225 0.0 6.4 0.00 0.00 0.00 54 1019.8
20260906162218 22 224 0.0 9.7 0.00 0.00 0.00 55 1019.8
20260906162144 22 194 1.6 9.7 0.00 0.00 0.00 55 1019.8
20260906162030 22 210 1.6 9.7 0.00 0.00 0.00 55 1019.8
20260906161943 22 208 3.2 11.3 0.00 0.00 0.00 54 1019.8
20260906161833 22 234 3.2 12.9 0.00 0.00 0.00 54 1019.7
20260906161743 22 225 3.2 12.9 0.00 0.00 0.00 55 1019.8
20260906161729 22 246 3.2 12.9 0.00 0.00 0.00 55 1019.8
20260906161719 22 274 4.8 12.9 0.00 0.00 0.00 55 1019.7
20260906161424 22 252 4.8 12.9 0.00 0.00 0.00 56 1019.8
20260906161335 22 247 4.8 12.9 0.00 0.00 0.00 56 1019.8
20260906161236 22 281 8.0 12.9 0.00 0.00 0.00 55 1019.8
20260906161125 23 286 8.0 12.9 0.00 0.00 0.00 55 1019.8
20260906161032 23 273 4.8 12.9 0.00 0.00 0.00 57 1019.8
20260906160935 23 315 3.2 9.7 0.00 0.00 0.00 56 1019.8
20260906160837 23 338 4.8 9.7 0.00 0.00 0.00 57 1019.8
20260906160717 23 288 4.8 9.7 0.00 0.00 0.00 57 1019.8
20260906160635 23 259 1.6 9.7 0.00 0.00 0.00 57 1019.8
20260906160525 23 311 1.6 6.4 0.00 0.00 0.00 57 1019.8
20260906160436 23 277 3.2 6.4 0.00 0.00 0.00 57 1019.8
20260906160331 22 339 1.6 6.4 0.00 0.00 0.00 58 1019.8
20260906160301 22 5 1.6 6.4 0.00 0.00 0.00 59 1019.8
20260906160253 22 317 1.6 6.4 0.00 0.00 0.00 59 1019.8
20260906160230 22 352 1.6 4.8 0.00 0.00 0.00 59 1019.7
20260906155924 22 303 1.6 4.8 0.00 0.00 0.00 60 1019.8
20260906155840 22 295 1.6 8.0 0.00 0.00 0.00 59 1019.7
20260906155741 22 271 1.6 8.0 0.00 0.00 0.00 59 1019.8
20260906155624 22 331 0.0 8.0 0.00 0.00 0.00 60 1019.8
20260906155535 22 202 0.0 8.0 0.00 0.00 0.00 60 1019.8
20260906155418 22 189 0.0 8.0 0.00 0.00 0.00 60 1019.8
20260906155342 22 181 1.6 8.0 0.00 0.00 0.00 60 1019.8
20260906155225 22 263 1.6 8.0 0.00 0.00 0.00 60 1019.8
20260906155118 22 210 4.8 8.0 0.00 0.00 0.00 59 1019.8
20260906155025 22 257 4.8 9.7 0.00 0.00 0.00 59 1019.7
20260906154940 22 284 4.8 9.7 0.00 0.00 0.00 60 1019.7
20260906154835 22 288 3.2 9.7 0.00 0.00 0.00 61 1019.7
20260906154728 22 347 1.6 9.7 0.00 0.00 0.00 61 1019.6
20260906154720 22 355 1.6 9.7 0.00 0.00 0.00 61 1019.6
20260906154622 22 360 3.2 9.7 0.00 0.00 0.00 62 1019.5
20260906154444 22 333 4.8 9.7 0.00 0.00 0.00 62 1019.6
20260906154328 22 331 6.4 9.7 0.00 0.00 0.00 62 1019.5
20260906154229 21 313 4.8 9.7 0.00 0.00 0.00 63 1019.5
20260906154124 21 329 3.2 8.0 0.00 0.00 0.00 63 1019.5
20260906154040 21 330 4.8 8.0 0.00 0.00 0.00 63 1019.7
20260906153926 21 321 1.6 8.0 0.00 0.00 0.00 63 1019.8
20260906153834 21 251 0.0 8.0 0.00 0.00 0.00 63 1019.9
20260906153736 21 351 0.0 8.0 0.00 0.00 0.00 63 1019.8
20260906153642 21 352 1.6 8.0 0.00 0.00 0.00 64 1019.8
20260906153527 21 338 3.2 8.0 0.00 0.00 0.00 64 1019.8
20260906153417 21 340 1.6 6.4 0.00 0.00 0.00 64 1019.8
20260906153327 21 171 0.0 6.4 0.00 0.00 0.00 64 1019.8
20260906153225 21 134 0.0 8.0 0.00 0.00 0.00 63 1019.8
20260906153221 21 119 0.0 8.0 0.00 0.00 0.00 64 1019.9
20260906153215 21 75 0.0 8.0 0.00 0.00 0.00 64 1019.8
20260906152931 21 269 0.0 8.0 0.00 0.00 0.00 64 1019.8
20260906152818 21 258 1.6 8.0 0.00 0.00 0.00 64 1019.8
20260906152719 21 305 3.2 8.0 0.00 0.00 0.00 65 1019.8
20260906152634 21 233 3.2 8.0 0.00 0.00 0.00 65 1019.8
20260906152532 21 253 3.2 8.0 0.00 0.00 0.00 65 1019.8
20260906152441 21 276 3.2 8.0 0.00 0.00 0.00 65 1019.8
20260906152338 21 282 3.2 6.4 0.00 0.00 0.00 65 1019.8
20260906152219 21 190 3.2 8.0 0.00 0.00 0.00 65 1019.9
20260906152118 21 197 3.2 8.0 0.00 0.00 0.00 65 1019.8
20260906152031 21 166 4.8 8.0 0.00 0.00 0.00 65 1019.9
20260906151933 21 153 3.2 8.0 0.00 0.00 0.00 65 1019.9
20260906151818 21 146 3.2 8.0 0.00 0.00 0.00 65 1020.0
20260906151718 21 171 3.2 8.0 0.00 0.00 0.00 65 1019.9
20260906151610 21 164 0.0 6.4 0.00 0.00 0.00 65 1020.0
20260906151439 20 255 0.0 9.7 0.00 0.00 0.00 65 1020.1
20260906151320 20 243 1.6 11.3 0.00 0.00 0.00 66 1020.0
20260906151246 20 216 3.2 11.3 0.00 0.00 0.00 66 1020.1
20260906151137 20 290 3.2 11.3 0.00 0.00 0.00 66 1020.2
20260906151041 20 213 3.2 11.3 0.00 0.00 0.00 66 1020.1
20260906150924 20 184 4.8 11.3 0.00 0.00 0.00 66 1020.1
20260906150843 20 165 4.8 11.3 0.00 0.00 0.00 66 1020.1
20260906150720 20 154 6.4 11.3 0.00 0.00 0.00 65 1020.2
20260906150625 20 152 6.4 11.3 0.00 0.00 0.00 66 1020.2
20260906150546 20 149 4.8 11.3 0.00 0.00 0.00 65 1020.1
20260906150421 20 165 1.6 9.7 0.00 0.00 0.00 66 1020.1
20260906150327 20 133 0.0 8.0 0.00 0.00 0.00 66 1020.0
20260906150257 20 352 0.0 8.0 0.00 0.00 0.00 66 1020.0
20260906150254 20 335 1.6 8.0 0.00 0.00 0.00 67 1020.0
20260906150232 20 316 3.2 11.3 0.00 0.00 0.00 66 1020.1
20260906145917 20 258 3.2 11.3 0.00 0.00 0.00 67 1020.1
20260906145833 20 290 1.6 12.9 0.00 0.00 0.00 67 1020.0
20260906145731 20 319 3.2 12.9 0.00 0.00 0.00 67 1019.9
20260906145643 20 270 3.2 12.9 0.00 0.00 0.00 67 1020.0
20260906145526 20 286 3.2 12.9 0.00 0.00 0.00 67 1020.0
20260906145429 20 248 3.2 12.9 0.00 0.00 0.00 67 1020.0
20260906145332 20 273 4.8 12.9 0.00 0.00 0.00 67 1020.0
20260906145236 20 145 8.0 12.9 0.00 0.00 0.00 67 1020.0
20260906145134 20 153 8.0 12.9 0.00 0.00 0.00 67 1020.0
20260906145031 20 158 8.0 12.9 0.00 0.00 0.00 67 1020.0
20260906144932 20 145 8.0 12.9 0.00 0.00 0.00 67 1020.1
20260906144840 20 163 6.4 12.9 0.00 0.00 0.00 67 1020.1
20260906144727 20 178 4.8 9.7 0.00 0.00 0.00 67 1020.1
20260906144718 20 152 6.4 9.7 0.00 0.00 0.00 67 1020.0
20260906144701 20 159 4.8 9.7 0.00 0.00 0.00 67 1020.0
20260906144444 20 163 3.2 8.0 0.00 0.00 0.00 67 1020.0
20260906144324 20 176 3.2 6.4 0.00 0.00 0.00 68 1019.9
20260906144233 20 209 3.2 6.4 0.00 0.00 0.00 68 1019.9
20260906144117 20 182 3.2 6.4 0.00 0.00 0.00 68 1019.9
20260906144035 20 161 3.2 8.0 0.00 0.00 0.00 68 1019.8
20260906143919 20 163 3.2 11.3 0.00 0.00 0.00 68 1019.8
20260906143841 20 240 3.2 11.3 0.00 0.00 0.00 68 1019.9
20260906143728 20 153 3.2 11.3 0.00 0.00 0.00 68 1019.8
20260906143625 20 148 3.2 11.3 0.00 0.00 0.00 68 1020.0
20260906143533 20 171 1.6 11.3 0.00 0.00 0.00 68 1019.8
20260906143436 20 145 3.2 11.3 0.00 0.00 0.00 68 1019.9
20260906143336 20 144 4.8 11.3 0.00 0.00 0.00 68 1019.9
20260906143224 20 153 6.4 11.3 0.00 0.00 0.00 67 1019.9
20260906143219 20 153 8.0 12.9 0.00 0.00 0.00 68 1019.9
20260906143125 20 158 4.8 9.7 0.00 0.00 0.00 68 1020.0
20260906142944 20 162 1.6 9.7 0.00 0.00 0.00 67 1020.0
20260906142843 20 96 3.2 6.4 0.00 0.00 0.00 67 1020.0
20260906142742 20 94 3.2 8.0 0.00 0.00 0.00 67 1019.9
20260906142640 19 110 1.6 8.0 0.00 0.00 0.00 67 1020.0
20260906142530 19 193 0.0 8.0 0.00 0.00 0.00 67 1020.0
20260906142440 19 223 0.0 8.0 0.00 0.00 0.00 67 1020.1
20260906142344 19 182 0.0 8.0 0.00 0.00 0.00 67 1020.0
20260906142225 19 158 0.0 8.0 0.00 0.00 0.00 67 1020.1
20260906142118 19 150 0.0 8.0 0.00 0.00 0.00 67 1020.1
20260906142026 19 191 3.2 8.0 0.00 0.00 0.00 67 1019.9
20260906141931 19 144 6.4 8.0 0.00 0.00 0.00 67 1020.1
20260906141844 19 148 4.8 9.7 0.00 0.00 0.00 68 1020.0
20260906141721 19 166 1.6 12.9 0.00 0.00 0.00 68 1020.0
20260906141716 19 176 1.6 12.9 0.00 0.00 0.00 68 1020.0
20260906141705 19 105 1.6 12.9 0.00 0.00 0.00 68 1020.0
20260906141429 19 117 0.0 12.9 0.00 0.00 0.00 68 1020.1
20260906141326 19 144 1.6 12.9 0.00 0.00 0.00 68 1020.1
20260906141224 19 182 1.6 12.9 0.00 0.00 0.00 68 1020.1
20260906141140 19 144 3.2 12.9 0.00 0.00 0.00 69 1020.0
20260906141038 19 163 6.4 12.9 0.00 0.00 0.00 69 1020.0
20260906140921 19 140 8.0 12.9 0.00 0.00 0.00 69 1020.0
20260906140818 19 143 8.0 12.9 0.00 0.00 0.00 69 1020.0
20260906140732 19 155 8.0 12.9 0.00 0.00 0.00 69 1019.9
20260906140644 19 163 8.0 12.9 0.00 0.00 0.00 69 1019.9
20260906140526 19 171 8.0 12.9 0.00 0.00 0.00 69 1019.8
20260906140417 19 154 8.0 12.9 0.00 0.00 0.00 69 1019.8
20260906140339 19 161 4.8 9.7 0.00 0.00 0.00 70 1019.8
20260906140229 19 196 1.6 11.3 0.00 0.00 0.00 70 1019.9
20260906140224 19 182 3.2 11.3 0.00 0.00 0.00 69 1019.8
20260906140202 19 175 6.4 11.3 0.00 0.00 0.00 69 1019.8
20260906135942 19 163 4.8 11.3 0.00 0.00 0.00 69 1019.8
20260906135838 19 171 1.6 11.3 0.00 0.00 0.00 70 1019.9
20260906135719 19 134 3.2 9.7 0.00 0.00 0.00 71 1020.0
20260906135643 19 93 3.2 9.7 0.00 0.00 0.00 71 1020.0
20260906135519 18 96 3.2 9.7 0.00 0.00 0.00 71 1020.0
20260906135421 18 92 3.2 9.7 0.00 0.00 0.00 71 1020.1
20260906135342 18 80 3.2 9.7 0.00 0.00 0.00 71 1020.0
20260906135230 18 109 1.6 6.4 0.00 0.00 0.00 71 1020.0
20260906135133 18 163 1.6 8.0 0.00 0.00 0.00 72 1019.9
20260906135039 18 141 0.0 9.7 0.00 0.00 0.00 72 1020.0
20260906134917 18 163 1.6 9.7 0.00 0.00 0.00 72 1020.1
20260906134828 18 198 1.6 9.7 0.00 0.00 0.00 72 1019.9
20260906134719 18 207 1.6 9.7 0.00 0.00 0.00 73 1020.0
20260906134717 18 159 1.6 9.7 0.00 0.00 0.00 73 1019.9
20260906134652 18 180 3.2 9.7 0.00 0.00 0.00 73 1019.9
20260906134432 18 141 4.8 11.3 0.00 0.00 0.00 73 1019.9
20260906134342 18 161 6.4 11.3 0.00 0.00 0.00 73 1019.9
20260906134243 18 152 4.8 11.3 0.00 0.00 0.00 74 1019.9
20260906134141 18 172 4.8 11.3 0.00 0.00 0.00 74 1019.8
20260906134041 18 151 3.2 11.3 0.00 0.00 0.00 74 1019.9
20260906133940 18 169 4.8 11.3 0.00 0.00 0.00 74 1019.8
20260906133830 18 176 6.4 11.3 0.00 0.00 0.00 74 1019.8
20260906133733 18 155 8.0 11.3 0.00 0.00 0.00 74 1019.8
20260906133617 18 164 8.0 11.3 0.00 0.00 0.00 74 1019.9
20260906133536 18 167 6.4 9.7 0.00 0.00 0.00 74 1019.8
20260906133429 18 184 6.4 6.4 0.00 0.00 0.00 73 1019.8
20260906133325 18 163 4.8 8.0 0.00 0.00 0.00 74 1019.8
20260906133228 18 149 4.8 11.3 0.00 0.00 0.00 74 1019.8
20260906133158 18 155 3.2 11.3 0.00 0.00 0.00 74 1019.7
20260906133147 18 186 0.0 11.3 0.00 0.00 0.00 74 1019.8
20260906132939 18 193 0.0 11.3 0.00 0.00 0.00 74 1019.7
20260906132826 18 161 0.0 11.3 0.00 0.00 0.00 74 1019.7
20260906132735 18 140 1.6 11.3 0.00 0.00 0.00 74 1019.7
20260906132628 18 159 3.2 11.3 0.00 0.00 0.00 74 1019.7
20260906132541 18 166 4.8 11.3 0.00 0.00 0.00 74 1019.6
20260906132434 18 165 8.0 11.3 0.00 0.00 0.00 74 1019.7
20260906132331 18 166 8.0 11.3 0.00 0.00 0.00 74 1019.6
20260906132228 18 160 9.7 11.3 0.00 0.00 0.00 74 1019.7
20260906132124 18 173 9.7 12.9 0.00 0.00 0.00 74 1019.7
20260906132042 18 165 6.4 14.5 0.00 0.00 0.00 74 1019.8
20260906131925 18 160 3.2 9.7 0.00 0.00 0.00 74 1019.6
20260906131838 18 248 3.2 6.4 0.00 0.00 0.00 74 1019.7
20260906131717 18 234 1.6 8.0 0.00 0.00 0.00 74 1019.6
20260906131715 18 198 1.6 8.0 0.00 0.00 0.00 74 1019.7
20260906131654 18 213 1.6 8.0 0.00 0.00 0.00 74 1019.7
20260906131435 18 212 1.6 8.0 0.00 0.00 0.00 74 1019.7
20260906131343 18 264 3.2 9.7 0.00 0.00 0.00 74 1019.6
20260906131232 18 253 1.6 9.7 0.00 0.00 0.00 74 1019.7
20260906131138 18 265 1.6 9.7 0.00 0.00 0.00 74 1019.6
20260906131032 18 156 3.2 9.7 0.00 0.00 0.00 74 1019.6
20260906130936 18 161 3.2 12.9 0.00 0.00 0.00 74 1019.6
20260906130829 18 232 3.2 12.9 0.00 0.00 0.00 74 1019.6
20260906130745 18 175 3.2 12.9 0.00 0.00 0.00 74 1019.6
20260906130621 18 192 3.2 12.9 0.00 0.00 0.00 74 1019.6
20260906130523 18 146 4.8 12.9 0.00 0.00 0.00 74 1019.6
20260906130427 18 190 4.8 12.9 0.00 0.00 0.00 74 1019.6
20260906130327 18 222 4.8 12.9 0.00 0.00 0.00 74 1019.6
20260906130234 18 229 4.8 12.9 0.00 0.00 0.00 74 1019.6
20260906130224 18 232 4.8 12.9 0.00 0.00 0.00 74 1019.5
20260906130218 18 271 6.4 12.9 0.00 0.00 0.00 74 1019.4
20260906125928 18 222 6.4 12.9 0.00 0.00 0.00 74 1019.5
20260906125840 18 223 6.4 12.9 0.00 0.00 0.00 74 1019.5
20260906125720 18 162 8.0 12.9 0.00 0.00 0.00 74 1019.4
20260906125642 18 200 9.7 14.5 0.00 0.00 0.00 74 1019.4
20260906125542 18 171 8.0 12.9 0.00 0.00 0.00 74 1019.4
20260906125437 18 179 6.4 11.3 0.00 0.00 0.00 74 1019.5
20260906125341 18 165 4.8 11.3 0.00 0.00 0.00 74 1019.4
20260906125241 18 161 3.2 11.3 0.00 0.00 0.00 74 1019.4
20260906125120 18 229 1.6 6.4 0.00 0.00 0.00 74 1019.5
20260906125042 18 173 1.6 6.4 0.00 0.00 0.00 74 1019.4
20260906124936 18 174 3.2 8.0 0.00 0.00 0.00 74 1019.4
20260906124818 18 207 4.8 8.0 0.00 0.00 0.00 74 1019.3
20260906124724 18 222 4.8 8.0 0.00 0.00 0.00 74 1019.3
20260906124702 18 157 3.2 8.0 0.00 0.00 0.00 74 1019.4
20260906124655 18 186 4.8 9.7 0.00 0.00 0.00 74 1019.3
20260906124418 18 191 4.8 9.7 0.00 0.00 0.00 74 1019.3
20260906124329 18 217 4.8 9.7 0.00 0.00 0.00 74 1019.3
20260906124227 18 259 3.2 11.3 0.00 0.00 0.00 74 1019.4
20260906124129 18 202 3.2 11.3 0.00 0.00 0.00 74 1019.3
20260906124021 18 281 3.2 11.3 0.00 0.00 0.00 74 1019.4
20260906123926 18 243 4.8 11.3 0.00 0.00 0.00 73 1019.3
20260906123843 18 178 4.8 11.3 0.00 0.00 0.00 73 1019.3
20260906123734 18 196 4.8 11.3 0.00 0.00 0.00 73 1019.3
20260906123640 18 234 6.4 11.3 0.00 0.00 0.00 73 1019.3
20260906123527 18 224 6.4 11.3 0.00 0.00 0.00 73 1019.3
20260906123434 18 228 4.8 11.3 0.00 0.00 0.00 73 1019.4
20260906123333 18 202 3.2 12.9 0.00 0.00 0.00 73 1019.3
20260906123218 18 257 3.2 12.9 0.00 0.00 0.00 73 1019.4
20260906123156 18 261 6.4 12.9 0.00 0.00 0.00 73 1019.4
20260906122924 18 277 4.8 12.9 0.00 0.00 0.00 73 1019.5
20260906122825 18 201 3.2 8.0 0.00 0.00 0.00 73 1019.3
20260906122724 18 306 3.2 8.0 0.00 0.00 0.00 72 1019.5
20260906122642 18 245 3.2 8.0 0.00 0.00 0.00 72 1019.4
20260906122519 18 260 3.2 8.0 0.00 0.00 0.00 72 1019.4
20260906122435 18 254 3.2 8.0 0.00 0.00 0.00 72 1019.4
20260906122324 18 209 3.2 8.0 0.00 0.00 0.00 72 1019.4
20260906122232 18 205 3.2 8.0 0.00 0.00 0.00 72 1019.3
20260906122130 18 215 4.8 9.7 0.00 0.00 0.00 72 1019.3
20260906122020 18 237 3.2 9.7 0.00 0.00 0.00 72 1019.4
20260906121925 18 219 3.2 9.7 0.00 0.00 0.00 72 1019.3
20260906121834 18 210 3.2 9.7 0.00 0.00 0.00 72 1019.3
20260906121729 18 237 4.8 9.7 0.00 0.00 0.00 72 1019.3
20260906121702 18 161 3.2 9.7 0.00 0.00 0.00 72 1019.3
20260906121632 18 168 3.2 9.7 0.00 0.00 0.00 72 1019.3
20260906121430 18 203 4.8 9.7 0.00 0.00 0.00 73 1019.3
20260906121340 18 193 4.8 9.7 0.00 0.00 0.00 72 1019.3
20260906121241 18 209 4.8 9.7 0.00 0.00 0.00 73 1019.3
20260906121121 18 205 4.8 12.9 0.00 0.00 0.00 72 1019.3
20260906121047 18 221 4.8 12.9 0.00 0.00 0.00 73 1019.3
20260906120919 18 238 3.2 12.9 0.00 0.00 0.00 72 1019.3
20260906120833 18 236 3.2 12.9 0.00 0.00 0.00 72 1019.3
20260906120732 18 180 4.8 12.9 0.00 0.00 0.00 72 1019.4
20260906120618 18 224 4.8 12.9 0.00 0.00 0.00 72 1019.3
20260906120536 18 187 6.4 12.9 0.00 0.00 0.00 72 1019.4
20260906120424 18 182 8.0 12.9 0.00 0.00 0.00 72 1019.3
20260906120341 18 198 6.4 12.9 0.00 0.00 0.00 72 1019.3
20260906120240 18 222 4.8 11.3 0.00 0.00 0.00 72 1019.3
20260906120235 18 219 4.8 11.3 0.00 0.00 0.00 72 1019.4
20260906120226 18 198 3.2 11.3 0.00 0.00 0.00 72 1019.3
20260906115931 18 225 4.8 11.3 0.00 0.00 0.00 72 1019.4
20260906115833 18 222 6.4 11.3 0.00 0.00 0.00 72 1019.3
20260906115731 18 234 6.4 9.7 0.00 0.00 0.00 72 1019.4
20260906115639 18 214 4.8 9.7 0.00 0.00 0.00 72 1019.3
20260906115526 18 221 4.8 9.7 0.00 0.00 0.00 72 1019.3
20260906115430 18 227 6.4 9.7 0.00 0.00 0.00 72 1019.4
20260906115330 18 205 4.8 9.7 0.00 0.00 0.00 71 1019.3
20260906115221 18 231 4.8 11.3 0.00 0.00 0.00 71 1019.3
20260906115134 18 213 4.8 11.3 0.00 0.00 0.00 71 1019.3
20260906115024 18 225 4.8 12.9 0.00 0.00 0.00 71 1019.3
20260906114927 18 205 6.4 12.9 0.00 0.00 0.00 71 1019.3
20260906114821 18 218 6.4 12.9 0.00 0.00 0.00 72 1019.4
20260906114725 18 198 4.8 12.9 0.00 0.00 0.00 71 1019.5
20260906114718 18 211 4.8 12.9 0.00 0.00 0.00 72 1019.4
20260906114443 18 209 6.4 12.9 0.00 0.00 0.00 71 1019.3
20260906114339 18 248 8.0 12.9 0.00 0.00 0.00 71 1019.3
20260906114218 18 217 8.0 12.9 0.00 0.00 0.00 71 1019.2
20260906114139 18 214 6.4 11.3 0.00 0.00 0.00 71 1019.3
20260906114027 18 209 4.8 11.3 0.00 0.00 0.00 71 1019.3
20260906113944 18 219 3.2 11.3 0.00 0.00 0.00 70 1019.4
20260906113844 18 205 6.4 11.3 0.00 0.00 0.00 70 1019.3
20260906113743 19 202 8.0 11.3 0.00 0.00 0.00 70 1019.4
20260906113629 19 213 6.4 11.3 0.00 0.00 0.00 69 1019.4
20260906113542 19 229 6.4 11.3 0.00 0.00 0.00 69 1019.3
20260906113419 19 239 6.4 11.3 0.00 0.00 0.00 69 1019.3
20260906113321 19 229 6.4 11.3 0.00 0.00 0.00 69 1019.3
20260906113222 19 213 8.0 11.3 0.00 0.00 0.00 69 1019.3
20260906113218 19 153 6.4 12.9 0.00 0.00 0.00 69 1019.3
20260906113214 19 198 8.0 11.3 0.00 0.00 0.00 68 1019.3
20260906112919 19 169 6.4 12.9 0.00 0.00 0.00 68 1019.3
20260906112820 19 184 3.2 11.3 0.00 0.00 0.00 68 1019.3
20260906112726 19 245 1.6 8.0 0.00 0.00 0.00 68 1019.3
20260906112642 19 211 1.6 8.0 0.00 0.00 0.00 67 1019.3
20260906112525 19 243 1.6 8.0 0.00 0.00 0.00 67 1019.3
20260906112431 19 227 3.2 8.0 0.00 0.00 0.00 67 1019.3
20260906112327 19 250 1.6 8.0 0.00 0.00 0.00 67 1019.2
20260906112242 19 269 3.2 8.0 0.00 0.00 0.00 66 1019.2
20260906112143 19 229 3.2 8.0 0.00 0.00 0.00 66 1019.3
20260906112028 19 255 3.2 6.4 0.00 0.00 0.00 66 1019.2
20260906111919 19 236 3.2 6.4 0.00 0.00 0.00 66 1019.3
20260906111831 19 240 3.2 6.4 0.00 0.00 0.00 66 1019.3
20260906111719 19 222 3.2 6.4 0.00 0.00 0.00 66 1019.2
20260906111700 19 223 1.6 8.0 0.00 0.00 0.00 65 1019.2
20260906111425 19 234 1.6 8.0 0.00 0.00 0.00 65 1019.3
20260906111318 19 221 3.2 8.0 0.00 0.00 0.00 65 1019.3
20260906111243 19 219 1.6 8.0 0.00 0.00 0.00 65 1019.3
20260906111128 19 255 0.0 8.0 0.00 0.00 0.00 65 1019.2
20260906111020 19 234 1.6 8.0 0.00 0.00 0.00 65 1019.2
20260906110926 19 248 1.6 8.0 0.00 0.00 0.00 65 1019.3
20260906110818 19 185 3.2 11.3 0.00 0.00 0.00 65 1019.2
20260906110730 19 193 3.2 11.3 0.00 0.00 0.00 64 1019.3
20260906110624 19 182 3.2 11.3 0.00 0.00 0.00 64 1019.3
20260906110539 19 265 1.6 11.3 0.00 0.00 0.00 64 1019.3
20260906110439 19 185 1.6 16.1 0.00 0.00 0.00 64 1019.2
20260906110330 19 230 3.2 16.1 0.00 0.00 0.00 64 1019.2
20260906110241 19 235 4.8 16.1 0.00 0.00 0.00 63 1019.2
20260906110231 19 207 6.4 16.1 0.00 0.00 0.00 63 1019.1
20260906110216 19 183 6.4 16.1 0.00 0.00 0.00 63 1019.1
20260906105924 19 211 6.4 16.1 0.00 0.00 0.00 63 1019.0
20260906105837 19 192 6.4 16.1 0.00 0.00 0.00 63 1018.9
20260906105739 19 235 8.0 16.1 0.00 0.00 0.00 62 1018.8
20260906105618 19 230 8.0 16.1 0.00 0.00 0.00 62 1018.8
20260906105521 20 233 8.0 12.9 0.00 0.00 0.00 61 1018.7
20260906105418 20 219 6.4 14.5 0.00 0.00 0.00 61 1018.8
20260906105331 20 203 6.4 14.5 0.00 0.00 0.00 61 1018.8
20260906105245 20 207 6.4 14.5 0.00 0.00 0.00 60 1018.8
20260906105126 20 220 6.4 14.5 0.00 0.00 0.00 60 1018.8
20260906105042 20 217 8.0 14.5 0.00 0.00 0.00 59 1018.8
20260906104932 20 223 6.4 14.5 0.00 0.00 0.00 58 1018.8
20260906104824 20 173 3.2 14.5 0.00 0.00 0.00 58 1018.9
20260906104724 20 167 4.8 14.5 0.00 0.00 0.00 58 1018.8
20260906104717 20 192 6.4 14.5 0.00 0.00 0.00 57 1018.8
20260906104424 20 146 6.4 14.5 0.00 0.00 0.00 57 1018.7
20260906104336 20 189 8.0 14.5 0.00 0.00 0.00 57 1018.8
20260906104226 20 146 8.0 16.1 0.00 0.00 0.00 57 1018.8
20260906104137 20 167 4.8 16.1 0.00 0.00 0.00 57 1018.7
20260906104024 20 219 4.8 16.1 0.00 0.00 0.00 56 1018.7
20260906103930 20 227 4.8 16.1 0.00 0.00 0.00 56 1018.7
20260906103839 20 219 4.8 16.1 0.00 0.00 0.00 56 1018.7
20260906103745 20 240 8.0 16.1 0.00 0.00 0.00 56 1018.6
20260906103621 20 229 9.7 16.1 0.00 0.00 0.00 56 1018.7
20260906103523 20 153 11.3 16.1 0.00 0.00 0.00 56 1018.7
20260906103423 20 155 12.9 16.1 0.00 0.00 0.00 56 1018.6
20260906103325 20 144 11.3 16.1 0.00 0.00 0.00 56 1018.6
20260906103223 20 142 9.7 14.5 0.00 0.00 0.00 55 1018.6
20260906103217 20 164 8.0 14.5 0.00 0.00 0.00 55 1018.7
20260906103051 20 164 3.2 12.9 0.00 0.00 0.00 56 1018.7
20260906102931 20 211 0.0 12.9 0.00 0.00 0.00 56 1018.6
20260906102832 20 254 0.0 12.9 0.00 0.00 0.00 56 1018.6
20260906102719 20 260 3.2 14.5 0.00 0.00 0.00 57 1018.6
20260906102627 21 304 6.4 14.5 0.00 0.00 0.00 57 1018.6
20260906102533 21 290 6.4 14.5 0.00 0.00 0.00 57 1018.5
20260906102422 21 240 4.8 14.5 0.00 0.00 0.00 57 1018.5
20260906102345 21 287 4.8 14.5 0.00 0.00 0.00 57 1018.4
20260906102218 21 279 6.4 14.5 0.00 0.00 0.00 56 1018.5
20260906102134 21 271 8.0 14.5 0.00 0.00 0.00 56 1018.5
20260906102038 21 274 9.7 14.5 0.00 0.00 0.00 56 1018.5
20260906101942 21 251 9.7 14.5 0.00 0.00 0.00 56 1018.5
20260906101828 21 294 6.4 14.5 0.00 0.00 0.00 55 1018.5
20260906101737 21 252 8.0 14.5 0.00 0.00 0.00 55 1018.6
20260906101700 21 281 8.0 14.5 0.00 0.00 0.00 55 1018.5
20260906101639 21 297 4.8 11.3 0.00 0.00 0.00 54 1018.5
20260906101432 21 259 3.2 9.7 0.00 0.00 0.00 54 1018.4
20260906101316 21 277 3.2 9.7 0.00 0.00 0.00 53 1018.5
20260906101243 21 270 4.8 9.7 0.00 0.00 0.00 53 1018.4
20260906101125 21 226 6.4 9.7 0.00 0.00 0.00 52 1018.5
20260906101031 21 216 3.2 9.7 0.00 0.00 0.00 52 1018.4
20260906100925 21 219 1.6 9.7 0.00 0.00 0.00 51 1018.5
20260906100823 21 235 1.6 9.7 0.00 0.00 0.00 51 1018.4
20260906100736 21 248 3.2 9.7 0.00 0.00 0.00 51 1018.5
20260906100634 21 261 4.8 9.7 0.00 0.00 0.00 50 1018.5
20260906100528 21 210 4.8 9.7 0.00 0.00 0.00 50 1018.5
20260906100417 21 234 3.2 8.0 0.00 0.00 0.00 50 1018.5
20260906100328 21 233 4.8 8.0 0.00 0.00 0.00 50 1018.6
20260906100256 21 236 3.2 8.0 0.00 0.00 0.00 50 1018.5
20260906100231 21 223 1.6 6.4 0.00 0.00 0.00 50 1018.6
20260906095937 21 259 0.0 6.4 0.00 0.00 0.00 50 1018.5
20260906095825 21 184 1.6 6.4 0.00 0.00 0.00 51 1018.6
20260906095738 21 231 4.8 6.4 0.00 0.00 0.00 50 1018.6
20260906095640 21 201 1.6 6.4 0.00 0.00 0.00 50 1018.6
20260906095532 21 257 1.6 6.4 0.00 0.00 0.00 51 1018.6
20260906095419 21 204 3.2 6.4 0.00 0.00 0.00 51 1018.6
20260906095332 21 246 1.6 6.4 0.00 0.00 0.00 51 1018.5
20260906095224 21 206 0.0 6.4 0.00 0.00 0.00 51 1018.7
20260906095139 21 275 0.0 0.0 0.00 0.00 0.00 51 1018.6
20260906095027 21 293 0.0 0.0 0.00 0.00 0.00 51 1018.6
20260906094937 21 297 0.0 0.0 0.00 0.00 0.00 51 1018.6
20260906094831 21 298 0.0 1.6 0.00 0.00 0.00 51 1018.6
20260906094727 21 294 0.0 1.6 0.00 0.00 0.00 51 1018.6
20260906094725 21 312 0.0 1.6 0.00 0.00 0.00 51 1018.6
20260906094702 21 311 0.0 1.6 0.00 0.00 0.00 51 1018.5
20260906094429 21 309 0.0 3.2 0.00 0.00 0.00 51 1018.6
20260906094342 21 309 0.0 3.2 0.00 0.00 0.00 51 1018.6
20260906094227 21 306 0.0 3.2 0.00 0.00 0.00 51 1018.6
20260906094125 21 300 0.0 4.8 0.00 0.00 0.00 51 1018.6
20260906094023 21 317 0.0 4.8 0.00 0.00 0.00 51 1018.6
20260906093937 21 317 0.0 4.8 0.00 0.00 0.00 50 1018.7
20260906093839 21 309 0.0 4.8 0.00 0.00 0.00 51 1018.7
20260906093733 21 343 0.0 4.8 0.00 0.00 0.00 51 1018.8
20260906093618 21 352 0.0 4.8 0.00 0.00 0.00 51 1018.7
20260906093526 21 348 0.0 4.8 0.00 0.00 0.00 50 1018.7
20260906093439 21 342 0.0 4.8 0.00 0.00 0.00 50 1018.8
20260906093324 21 311 0.0 9.7 0.00 0.00 0.00 50 1018.8
20260906093217 21 341 0.0 9.7 0.00 0.00 0.00 51 1018.7
20260906093203 21 301 0.0 9.7 0.00 0.00 0.00 50 1018.7
20260906092934 21 306 0.0 9.7 0.00 0.00 0.00 50 1018.7
20260906092844 21 300 0.0 9.7 0.00 0.00 0.00 50 1018.8
20260906092741 21 271 0.0 9.7 0.00 0.00 0.00 50 1018.8
20260906092637 21 271 3.2 9.7 0.00 0.00 0.00 49 1018.7
20260906092539 21 282 6.4 9.7 0.00 0.00 0.00 49 1018.6
20260906092432 21 309 4.8 9.7 0.00 0.00 0.00 50 1018.6
20260906092329 21 296 3.2 8.0 0.00 0.00 0.00 50 1018.6
20260906092216 21 296 1.6 8.0 0.00 0.00 0.00 50 1018.6
20260906092128 21 267 3.2 8.0 0.00 0.00 0.00 50 1018.6
20260906092030 21 284 3.2 8.0 0.00 0.00 0.00 50 1018.6
20260906091919 21 268 3.2 8.0 0.00 0.00 0.00 50 1018.6
20260906091825 21 261 1.6 8.0 0.00 0.00 0.00 51 1018.6
20260906091722 21 275 3.2 8.0 0.00 0.00 0.00 51 1018.7
20260906091720 21 303 3.2 8.0 0.00 0.00 0.00 51 1018.6
20260906091717 21 309 1.6 6.4 0.00 0.00 0.00 52 1018.6
20260906091425 21 323 0.0 6.4 0.00 0.00 0.00 52 1018.7
20260906091318 21 333 0.0 6.4 0.00 0.00 0.00 52 1018.6
20260906091236 21 344 0.0 6.4 0.00 0.00 0.00 52 1018.6
20260906091124 21 343 1.6 6.4 0.00 0.00 0.00 51 1018.6
20260906091033 21 349 3.2 6.4 0.00 0.00 0.00 51 1018.6
20260906090938 21 360 3.2 6.4 0.00 0.00 0.00 51 1018.6
20260906090838 21 352 3.2 6.4 0.00 0.00 0.00 51 1018.6
20260906090724 21 352 3.2 6.4 0.00 0.00 0.00 51 1018.6
20260906090639 21 11 1.6 4.8 0.00 0.00 0.00 51 1018.6
20260906090546 21 5 3.2 4.8 0.00 0.00 0.00 51 1018.6
20260906090438 21 340 3.2 4.8 0.00 0.00 0.00 51 1018.6
20260906090338 21 350 1.6 4.8 0.00 0.00 0.00 52 1018.6
20260906090245 21 5 1.6 4.8 0.00 0.00 0.00 52 1018.6
20260906090241 21 13 0.0 3.2 0.00 0.00 0.00 52 1018.6
20260906090229 21 348 0.0 3.2 0.00 0.00 0.00 51 1018.5
20260906085919 21 344 0.0 3.2 0.00 0.00 0.00 51 1018.5
20260906085818 21 346 0.0 0.0 0.00 0.00 0.00 51 1018.4
20260906085728 21 323 0.0 0.0 0.00 0.00 0.00 51 1018.3
20260906085630 21 326 0.0 0.0 0.00 0.00 0.00 51 1018.3
20260906085545 21 327 0.0 0.0 0.00 0.00 0.00 51 1018.4
20260906085441 21 329 0.0 0.0 0.00 0.00 0.00 51 1018.2
20260906085340 21 335 0.0 0.0 0.00 0.00 0.00 51 1018.3
20260906085244 21 336 0.0 0.0 0.00 0.00 0.00 51 1018.4
20260906085141 21 339 0.0 3.2 0.00 0.00 0.00 52 1018.4
20260906085030 21 323 0.0 6.4 0.00 0.00 0.00 51 1018.4
20260906084942 21 307 0.0 6.4 0.00 0.00 0.00 51 1018.4
20260906084835 21 269 0.0 6.4 0.00 0.00 0.00 51 1018.4
20260906084722 21 258 0.0 6.4 0.00 0.00 0.00 51 1018.3
20260906084719 21 300 0.0 6.4 0.00 0.00 0.00 51 1018.3
20260906084632 21 309 0.0 6.4 0.00 0.00 0.00 51 1018.4
20260906084434 21 311 0.0 6.4 0.00 0.00 0.00 51 1018.4
20260906084329 21 312 1.6 6.4 0.00 0.00 0.00 51 1018.4
20260906084216 21 348 3.2 6.4 0.00 0.00 0.00 51 1018.4
20260906084126 21 355 1.6 4.8 0.00 0.00 0.00 51 1018.4
20260906084028 21 5 1.6 4.8 0.00 0.00 0.00 51 1018.2
20260906083929 21 331 1.6 4.8 0.00 0.00 0.00 51 1018.2
20260906083837 21 306 1.6 3.2 0.00 0.00 0.00 51 1018.2
20260906083728 21 341 0.0 3.2 0.00 0.00 0.00 51 1018.2
20260906083619 21 291 0.0 3.2 0.00 0.00 0.00 51 1018.3
20260906083524 21 315 0.0 3.2 0.00 0.00 0.00 51 1018.2
20260906083437 21 341 1.6 3.2 0.00 0.00 0.00 51 1018.2
20260906083326 21 319 1.6 3.2 0.00 0.00 0.00 51 1018.3
20260906083218 21 331 0.0 4.8 0.00 0.00 0.00 51 1018.2
20260906083206 21 344 0.0 4.8 0.00 0.00 0.00 51 1018.2
20260906083153 21 342 0.0 4.8 0.00 0.00 0.00 51 1018.3
20260906082931 21 348 0.0 4.8 0.00 0.00 0.00 51 1018.3
20260906082842 21 343 0.0 4.8 0.00 0.00 0.00 51 1018.3
20260906082742 22 333 0.0 4.8 0.00 0.00 0.00 50 1018.4
20260906082636 22 331 0.0 4.8 0.00 0.00 0.00 50 1018.3
20260906082536 22 322 0.0 4.8 0.00 0.00 0.00 50 1018.4
20260906082442 22 328 0.0 4.8 0.00 0.00 0.00 50 1018.4
20260906082329 22 336 0.0 1.6 0.00 0.00 0.00 50 1018.5
20260906082243 22 337 0.0 1.6 0.00 0.00 0.00 50 1018.5
20260906082128 22 331 0.0 1.6 0.00 0.00 0.00 50 1018.5
20260906082041 22 333 0.0 3.2 0.00 0.00 0.00 50 1018.4
20260906081936 22 339 0.0 3.2 0.00 0.00 0.00 50 1018.4
20260906081823 22 345 0.0 3.2 0.00 0.00 0.00 50 1018.4
20260906081719 22 355 0.0 3.2 0.00 0.00 0.00 49 1018.4
20260906081715 22 33 0.0 3.2 0.00 0.00 0.00 49 1018.4
20260906081635 22 46 0.0 3.2 0.00 0.00 0.00 49 1018.4
20260906081419 22 62 0.0 3.2 0.00 0.00 0.00 49 1018.4
20260906081334 22 73 0.0 3.2 0.00 0.00 0.00 49 1018.4
20260906081240 22 82 0.0 3.2 0.00 0.00 0.00 49 1018.4
20260906081134 22 82 0.0 3.2 0.00 0.00 0.00 49 1018.4
20260906081035 22 94 0.0 3.2 0.00 0.00 0.00 48 1018.4
20260906080921 22 74 0.0 3.2 0.00 0.00 0.00 48 1018.4
20260906080840 22 79 0.0 3.2 0.00 0.00 0.00 48 1018.4
20260906080732 22 30 0.0 3.2 0.00 0.00 0.00 48 1018.4
20260906080643 22 21 0.0 3.2 0.00 0.00 0.00 48 1018.4
20260906080529 22 28 0.0 3.2 0.00 0.00 0.00 47 1018.4
20260906080432 22 29 0.0 3.2 0.00 0.00 0.00 47 1018.4
20260906080327 22 23 0.0 3.2 0.00 0.00 0.00 47 1018.4
20260906080241 22 22 0.0 3.2 0.00 0.00 0.00 47 1018.4
20260906080227 22 16 0.0 1.6 0.00 0.00 0.00 47 1018.4
20260906075923 22 10 0.0 1.6 0.00 0.00 0.00 46 1018.4
20260906075840 22 9 0.0 3.2 0.00 0.00 0.00 46 1018.3
20260906075721 22 9 0.0 4.8 0.00 0.00 0.00 46 1018.4
20260906075618 23 10 0.0 4.8 0.00 0.00 0.00 46 1018.3
20260906075530 23 13 0.0 4.8 0.00 0.00 0.00 46 1018.2
20260906075431 23 24 0.0 4.8 0.00 0.00 0.00 46 1018.2
20260906075325 23 36 0.0 6.4 0.00 0.00 0.00 46 1018.2
20260906075243 23 48 0.0 6.4 0.00 0.00 0.00 46 1018.2
20260906075118 23 61 1.6 6.4 0.00 0.00 0.00 46 1018.1
20260906075031 23 86 1.6 6.4 0.00 0.00 0.00 46 1018.2
20260906074932 23 102 1.6 6.4 0.00 0.00 0.00 45 1018.1
20260906074835 23 77 3.2 6.4 0.00 0.00 0.00 45 1018.1
20260906074725 23 91 3.2 6.4 0.00 0.00 0.00 45 1018.1
20260906074658 23 107 3.2 6.4 0.00 0.00 0.00 45 1018.1
20260906074652 23 107 3.2 6.4 0.00 0.00 0.00 45 1018.1
20260906074434 23 126 1.6 4.8 0.00 0.00 0.00 45 1018.2
20260906074340 23 110 1.6 4.8 0.00 0.00 0.00 45 1018.1
20260906074241 23 101 1.6 4.8 0.00 0.00 0.00 45 1018.1
20260906074140 23 115 1.6 4.8 0.00 0.00 0.00 45 1018.1
20260906074028 23 110 1.6 4.8 0.00 0.00 0.00 45 1018.1
20260906073927 23 111 1.6 4.8 0.00 0.00 0.00 45 1018.0
20260906073831 23 105 0.0 4.8 0.00 0.00 0.00 45 1018.0
20260906073731 23 109 0.0 4.8 0.00 0.00 0.00 45 1018.1
20260906073634 23 131 1.6 6.4 0.00 0.00 0.00 44 1018.0
20260906073524 23 111 1.6 6.4 0.00 0.00 0.00 44 1018.1
20260906073418 23 104 1.6 6.4 0.00 0.00 0.00 45 1018.1
20260906073343 23 93 0.0 6.4 0.00 0.00 0.00 45 1018.0
20260906073222 23 105 0.0 6.4 0.00 0.00 0.00 45 1018.1
20260906073203 23 142 1.6 6.4 0.00 0.00 0.00 45 1018.0
20260906073143 23 42 0.0 6.4 0.00 0.00 0.00 45 1018.1
20260906072930 23 44 1.6 6.4 0.00 0.00 0.00 44 1018.1
20260906072820 23 60 1.6 6.4 0.00 0.00 0.00 44 1018.1
20260906072724 23 82 1.6 6.4 0.00 0.00 0.00 44 1018.1
20260906072639 23 72 1.6 9.7 0.00 0.00 0.00 44 1018.1
20260906072539 23 101 0.0 9.7 0.00 0.00 0.00 44 1018.1
20260906072437 23 115 1.6 9.7 0.00 0.00 0.00 44 1018.2
20260906072346 23 96 1.6 9.7 0.00 0.00 0.00 44 1018.1
20260906072232 23 109 1.6 9.7 0.00 0.00 0.00 44 1018.1
20260906072121 23 99 1.6 11.3 0.00 0.00 0.00 44 1018.1
20260906072026 23 117 1.6 14.5 0.00 0.00 0.00 44 1018.1
20260906071931 23 88 4.8 14.5 0.00 0.00 0.00 44 1018.1
20260906071830 23 104 4.8 14.5 0.00 0.00 0.00 44 1018.1
20260906071716 23 111 3.2 14.5 0.00 0.00 0.00 44 1018.1
20260906071711 23 97 3.2 14.5 0.00 0.00 0.00 44 1018.1
20260906071620 23 111 4.8 14.5 0.00 0.00 0.00 44 1018.1
20260906071434 23 98 6.4 14.5 0.00 0.00 0.00 44 1018.1
20260906071321 23 77 8.0 14.5 0.00 0.00 0.00 44 1018.1
20260906071236 23 113 6.4 14.5 0.00 0.00 0.00 44 1018.1
20260906071131 23 112 4.8 12.9 0.00 0.00 0.00 43 1018.0
20260906071032 23 106 4.8 14.5 0.00 0.00 0.00 43 1017.9
20260906070943 23 105 6.4 14.5 0.00 0.00 0.00 44 1017.9
20260906070828 23 179 8.0 14.5 0.00 0.00 0.00 43 1017.9
20260906070743 23 178 8.0 14.5 0.00 0.00 0.00 43 1017.9
20260906070630 23 155 8.0 14.5 0.00 0.00 0.00 43 1017.9
20260906070522 23 155 4.8 14.5 0.00 0.00 0.00 43 1017.9
20260906070424 23 156 4.8 14.5 0.00 0.00 0.00 43 1017.8
20260906070320 23 155 6.4 14.5 0.00 0.00 0.00 43 1017.8
20260906070223 23 218 6.4 14.5 0.00 0.00 0.00 44 1017.8
20260906070217 23 163 6.4 14.5 0.00 0.00 0.00 43 1017.8
20260906070119 23 239 4.8 14.5 0.00 0.00 0.00 43 1017.8
20260906065926 23 242 3.2 14.5 0.00 0.00 0.00 43 1017.9
20260906065837 23 232 6.4 14.5 0.00 0.00 0.00 43 1017.8
20260906065736 23 211 8.0 14.5 0.00 0.00 0.00 43 1017.7
20260906065642 23 214 6.4 14.5 0.00 0.00 0.00 43 1017.9
20260906065527 23 242 4.8 14.5 0.00 0.00 0.00 43 1017.7
20260906065427 23 206 3.2 11.3 0.00 0.00 0.00 43 1017.8
20260906065320 23 235 4.8 11.3 0.00 0.00 0.00 43 1017.9
20260906065243 23 227 4.8 11.3 0.00 0.00 0.00 43 1017.9
20260906065126 23 239 1.6 8.0 0.00 0.00 0.00 43 1018.0
20260906065035 23 226 0.0 3.2 0.00 0.00 0.00 43 1017.9
20260906064925 23 188 0.0 3.2 0.00 0.00 0.00 43 1017.9
20260906064832 23 174 0.0 3.2 0.00 0.00 0.00 43 1017.9
20260906064748 23 175 0.0 1.6 0.00 0.00 0.00 43 1017.9
20260906064652 23 173 0.0 3.2 0.00 0.00 0.00 42 1017.9
20260906064551 23 171 0.0 3.2 0.00 0.00 0.00 42 1018.0
20260906064420 23 184 0.0 3.2 0.00 0.00 0.00 42 1018.0
20260906064342 23 109 0.0 3.2 0.00 0.00 0.00 42 1018.0
20260906064224 23 126 0.0 4.8 0.00 0.00 0.00 42 1017.9
20260906064121 23 111 0.0 4.8 0.00 0.00 0.00 42 1018.0
20260906064041 24 121 0.0 4.8 0.00 0.00 0.00 42 1017.9
20260906063924 24 142 0.0 4.8 0.00 0.00 0.00 42 1017.9
20260906063836 24 111 1.6 6.4 0.00 0.00 0.00 42 1018.1
20260906063745 24 92 0.0 9.7 0.00 0.00 0.00 42 1018.0
20260906063623 24 105 0.0 9.7 0.00 0.00 0.00 42 1018.0
20260906063531 24 110 1.6 9.7 0.00 0.00 0.00 41 1018.1
20260906063420 24 124 1.6 9.7 0.00 0.00 0.00 41 1018.0
20260906063328 24 136 1.6 9.7 0.00 0.00 0.00 41 1018.1
20260906063227 24 118 3.2 9.7 0.00 0.00 0.00 41 1018.1
20260906063141 24 128 3.2 9.7 0.00 0.00 0.00 41 1018.1
20260906063137 24 139 4.8 9.7 0.00 0.00 0.00 41 1018.1
20260906062940 24 113 3.2 9.7 0.00 0.00 0.00 41 1018.1
20260906062821 24 107 3.2 9.7 0.00 0.00 0.00 41 1018.2
20260906062745 24 115 3.2 9.7 0.00 0.00 0.00 41 1018.2
20260906062634 24 101 3.2 9.7 0.00 0.00 0.00 40 1018.1
20260906062534 24 108 3.2 9.7 0.00 0.00 0.00 40 1018.2
20260906062431 24 109 3.2 9.7 0.00 0.00 0.00 40 1018.2
20260906062340 24 109 1.6 9.7 0.00 0.00 0.00 40 1018.2
20260906062238 24 116 1.6 9.7 0.00 0.00 0.00 40 1018.2
20260906062120 25 146 4.8 11.3 0.00 0.00 0.00 40 1018.2
20260906062024 25 166 4.8 11.3 0.00 0.00 0.00 40 1018.2
20260906061929 25 169 1.6 11.3 0.00 0.00 0.00 40 1018.3
20260906061819 25 165 3.2 11.3 0.00 0.00 0.00 40 1018.2
20260906061722 25 132 4.8 11.3 0.00 0.00 0.00 40 1018.3
20260906061644 25 137 6.4 11.3 0.00 0.00 0.00 40 1018.4
20260906061639 25 146 4.8 11.3 0.00 0.00 0.00 40 1018.4
20260906061442 25 121 6.4 11.3 0.00 0.00 0.00 40 1018.4
20260906061343 25 105 6.4 11.3 0.00 0.00 0.00 40 1018.4
20260906061227 25 129 4.8 11.3 0.00 0.00 0.00 40 1018.5
20260906061141 25 107 3.2 6.4 0.00 0.00 0.00 40 1018.4
20260906061040 25 92 1.6 4.8 0.00 0.00 0.00 40 1018.5
20260906060923 25 19 0.0 3.2 0.00 0.00 0.00 39 1018.5
20260906060833 25 306 0.0 3.2 0.00 0.00 0.00 39 1018.6
20260906060734 25 270 0.0 3.2 0.00 0.00 0.00 39 1018.5
20260906060639 25 284 0.0 3.2 0.00 0.00 0.00 39 1018.4
20260906060543 25 270 0.0 4.8 0.00 0.00 0.00 39 1018.6
20260906060436 25 269 0.0 9.7 0.00 0.00 0.00 39 1018.6
20260906060340 25 277 0.0 11.3 0.00 0.00 0.00 39 1018.5
20260906060227 25 299 0.0 11.3 0.00 0.00 0.00 39 1018.6
20260906060219 25 244 0.0 11.3 0.00 0.00 0.00 39 1018.6
20260906060200 25 250 0.0 11.3 0.00 0.00 0.00 39 1018.7
20260906055940 25 211 0.0 11.3 0.00 0.00 0.00 39 1018.6
20260906055832 25 184 1.6 11.3 0.00 0.00 0.00 39 1018.5
20260906055727 25 169 4.8 11.3 0.00 0.00 0.00 39 1018.7
20260906055619 25 161 6.4 11.3 0.00 0.00 0.00 39 1018.7
20260906055532 25 158 6.4 11.3 0.00 0.00 0.00 39 1018.7
20260906055430 25 147 4.8 11.3 0.00 0.00 0.00 39 1018.7
20260906055325 25 143 3.2 11.3 0.00 0.00 0.00 39 1018.6
20260906055232 25 133 4.8 11.3 0.00 0.00 0.00 39 1018.7
20260906055138 25 153 3.2 9.7 0.00 0.00 0.00 39 1018.6
20260906055042 25 148 1.6 9.7 0.00 0.00 0.00 38 1018.6
20260906054922 25 184 3.2 9.7 0.00 0.00 0.00 38 1018.6
20260906054843 25 143 3.2 11.3 0.00 0.00 0.00 38 1018.7
20260906054737 25 149 3.2 12.9 0.00 0.00 0.00 38 1018.6
20260906054652 25 167 3.2 12.9 0.00 0.00 0.00 38 1018.6
20260906054627 25 113 4.8 12.9 0.00 0.00 0.00 38 1018.6
20260906054425 25 98 4.8 14.5 0.00 0.00 0.00 38 1018.6
20260906054332 25 121 3.2 22.5 0.00 0.00 0.00 38 1018.6
20260906054227 25 100 1.6 22.5 0.00 0.00 0.00 38 1018.4
20260906054116 25 150 4.8 22.5 0.00 0.00 0.00 37 1018.5
20260906054033 25 141 8.0 22.5 0.00 0.00 0.00 37 1018.5
20260906053927 25 175 8.0 22.5 0.00 0.00 0.00 37 1018.5
20260906053818 26 143 8.0 22.5 0.00 0.00 0.00 37 1018.5
20260906053728 26 94 11.3 22.5 0.00 0.00 0.00 37 1018.6
20260906053640 26 153 11.3 22.5 0.00 0.00 0.00 37 1018.6
20260906053545 26 144 6.4 16.1 0.00 0.00 0.00 36 1018.6
20260906053415 26 169 8.0 16.1 0.00 0.00 0.00 36 1018.6
20260906053334 26 178 9.7 16.1 0.00 0.00 0.00 36 1018.7
20260906053245 26 169 9.7 17.7 0.00 0.00 0.00 36 1018.6
20260906053159 26 215 9.7 16.1 0.00 0.00 0.00 36 1018.6
20260906053148 26 164 11.3 16.1 0.00 0.00 0.00 35 1018.7
20260906052941 26 180 9.7 14.5 0.00 0.00 0.00 35 1018.6
20260906052828 26 157 9.7 14.5 0.00 0.00 0.00 35 1018.6
20260906052738 26 183 8.0 14.5 0.00 0.00 0.00 35 1018.6
20260906052628 26 157 3.2 14.5 0.00 0.00 0.00 35 1018.6
20260906052528 26 215 1.6 14.5 0.00 0.00 0.00 34 1018.6
20260906052441 26 223 4.8 14.5 0.00 0.00 0.00 34 1018.6
20260906052318 26 182 6.4 16.1 0.00 0.00 0.00 34 1018.6
20260906052230 26 171 8.0 16.1 0.00 0.00 0.00 34 1018.6
20260906052125 26 178 9.7 16.1 0.00 0.00 0.00 34 1018.6
20260906052028 26 151 9.7 16.1 0.00 0.00 0.00 34 1018.5
20260906051933 26 165 8.0 16.1 0.00 0.00 0.00 34 1018.5
20260906051843 26 194 8.0 16.1 0.00 0.00 0.00 34 1018.6
20260906051725 26 169 9.7 16.1 0.00 0.00 0.00 34 1018.5
20260906051657 26 161 9.7 16.1 0.00 0.00 0.00 34 1018.6
20260906051640 26 157 8.0 16.1 0.00 0.00 0.00 34 1018.5
20260906051437 26 170 6.4 12.9 0.00 0.00 0.00 34 1018.6
20260906051325 26 167 6.4 12.9 0.00 0.00 0.00 34 1018.6
20260906051227 26 165 4.8 12.9 0.00 0.00 0.00 34 1018.6
20260906051124 26 111 4.8 8.0 0.00 0.00 0.00 34 1018.7
20260906051041 26 139 4.8 8.0 0.00 0.00 0.00 34 1018.8
20260906050927 26 174 4.8 8.0 0.00 0.00 0.00 34 1018.8
20260906050842 26 172 4.8 9.7 0.00 0.00 0.00 34 1018.8
20260906050721 26 186 6.4 9.7 0.00 0.00 0.00 34 1018.9
20260906050618 26 167 4.8 9.7 0.00 0.00 0.00 34 1018.9
20260906050519 26 178 4.8 8.0 0.00 0.00 0.00 34 1019.0
20260906050443 26 192 3.2 6.4 0.00 0.00 0.00 34 1018.9
20260906050319 26 208 3.2 9.7 0.00 0.00 0.00 34 1018.9
20260906050232 26 200 3.2 9.7 0.00 0.00 0.00 34 1019.0
20260906050222 26 202 1.6 9.7 0.00 0.00 0.00 34 1019.0
20260906050156 26 234 3.2 9.7 0.00 0.00 0.00 34 1019.1
20260906045924 26 223 3.2 9.7 0.00 0.00 0.00 34 1019.0
20260906045828 26 240 3.2 9.7 0.00 0.00 0.00 34 1019.0
20260906045734 26 188 4.8 9.7 0.00 0.00 0.00 34 1019.1
20260906045643 26 153 6.4 9.7 0.00 0.00 0.00 34 1019.1
20260906045520 26 167 4.8 9.7 0.00 0.00 0.00 34 1019.1
20260906045429 26 167 3.2 6.4 0.00 0.00 0.00 34 1019.1
20260906045343 26 170 3.2 4.8 0.00 0.00 0.00 34 1019.1
20260906045236 26 193 3.2 4.8 0.00 0.00 0.00 34 1019.0
20260906045142 26 185 1.6 4.8 0.00 0.00 0.00 34 1019.1
20260906045042 26 192 1.6 4.8 0.00 0.00 0.00 34 1019.0
20260906044940 26 188 0.0 4.8 0.00 0.00 0.00 34 1019.1
20260906044832 26 188 0.0 4.8 0.00 0.00 0.00 34 1019.1
20260906044736 26 145 0.0 4.8 0.00 0.00 0.00 34 1019.1
20260906044651 26 124 1.6 4.8 0.00 0.00 0.00 34 1019.0
20260906044634 26 122 1.6 4.8 0.00 0.00 0.00 34 1019.1
20260906044429 26 115 1.6 4.8 0.00 0.00 0.00 34 1019.1
20260906044343 26 112 1.6 4.8 0.00 0.00 0.00 35 1019.2
20260906044218 26 104 0.0 3.2 0.00 0.00 0.00 34 1019.1
20260906044134 26 53 0.0 3.2 0.00 0.00 0.00 34 1019.1
20260906044032 26 5 0.0 0.0 0.00 0.00 0.00 35 1019.1
20260906043930 26 348 0.0 0.0 0.00 0.00 0.00 35 1019.1
20260906043816 26 342 0.0 1.6 0.00 0.00 0.00 34 1019.1
20260906043745 26 338 0.0 1.6 0.00 0.00 0.00 34 1019.0
20260906043640 26 338 0.0 4.8 0.00 0.00 0.00 34 1019.1
20260906043520 26 326 0.0 4.8 0.00 0.00 0.00 35 1019.0
20260906043433 26 324 0.0 4.8 0.00 0.00 0.00 35 1019.0
20260906043334 26 325 0.0 4.8 0.00 0.00 0.00 35 1019.1
20260906043231 26 327 0.0 4.8 0.00 0.00 0.00 35 1019.1
20260906043152 26 329 0.0 4.8 0.00 0.00 0.00 34 1019.1
20260906043148 26 329 0.0 4.8 0.00 0.00 0.00 35 1018.9
20260906042924 26 325 1.6 4.8 0.00 0.00 0.00 35 1018.9
20260906042832 26 309 1.6 4.8 0.00 0.00 0.00 35 1018.8
20260906042728 26 324 0.0 4.8 0.00 0.00 0.00 35 1018.8
20260906042643 26 76 0.0 4.8 0.00 0.00 0.00 35 1018.8
20260906042520 26 99 0.0 9.7 0.00 0.00 0.00 35 1018.6
20260906042329 26 92 1.6 14.5 0.00 0.00 0.00 35 1018.9
20260906042220 26 40 0.0 14.5 0.00 0.00 0.00 35 1018.8
20260906042138 26 46 0.0 14.5 0.00 0.00 0.00 35 1018.8
20260906042026 26 45 0.0 14.5 0.00 0.00 0.00 35 1018.8
20260906041923 26 52 0.0 14.5 0.00 0.00 0.00 35 1018.8
20260906041841 26 71 1.6 14.5 0.00 0.00 0.00 34 1018.8
20260906041726 26 57 3.2 14.5 0.00 0.00 0.00 35 1018.8
20260906041723 26 39 4.8 14.5 0.00 0.00 0.00 34 1018.7
20260906041712 26 72 4.8 14.5 0.00 0.00 0.00 34 1018.7
20260906041431 26 95 3.2 8.0 0.00 0.00 0.00 34 1018.7
20260906041324 26 91 3.2 8.0 0.00 0.00 0.00 34 1018.7
20260906041241 26 45 3.2 8.0 0.00 0.00 0.00 34 1018.5
20260906041125 26 68 3.2 8.0 0.00 0.00 0.00 34 1018.3
20260906041028 26 44 3.2 6.4 0.00 0.00 0.00 33 1018.3
20260906040933 26 77 3.2 6.4 0.00 0.00 0.00 33 1018.2
20260906040843 26 34 3.2 6.4 0.00 0.00 0.00 33 1018.1
20260906040738 26 14 1.6 6.4 0.00 0.00 0.00 33 1017.9
20260906040625 26 10 0.0 6.4 0.00 0.00 0.00 33 1017.9
20260906040535 26 321 0.0 6.4 0.00 0.00 0.00 33 1017.8
20260906040434 26 315 1.6 8.0 0.00 0.00 0.00 33 1017.9
20260906040339 26 317 1.6 8.0 0.00 0.00 0.00 33 1017.7
20260906040220 26 11 1.6 8.0 0.00 0.00 0.00 33 1017.7
20260906040215 26 267 3.2 8.0 0.00 0.00 0.00 33 1017.7
20260906040127 26 302 3.2 12.9 0.00 0.00 0.00 33 1017.7
20260906035936 26 294 3.2 14.5 0.00 0.00 0.00 33 1017.7
20260906035833 26 214 4.8 14.5 0.00 0.00 0.00 33 1017.5
20260906035743 26 284 4.8 14.5 0.00 0.00 0.00 33 1017.5
20260906035637 26 288 3.2 14.5 0.00 0.00 0.00 33 1017.5
20260906035531 26 301 3.2 14.5 0.00 0.00 0.00 33 1017.5
20260906035425 27 314 4.8 14.5 0.00 0.00 0.00 33 1017.5
20260906035335 27 280 8.0 14.5 0.00 0.00 0.00 32 1017.5
20260906035218 27 279 9.7 14.5 0.00 0.00 0.00 32 1017.5
20260906035119 27 276 9.7 14.5 0.00 0.00 0.00 33 1017.4
20260906035019 27 275 8.0 12.9 0.00 0.00 0.00 32 1017.4
20260906034930 27 277 4.8 12.9 0.00 0.00 0.00 32 1017.4
20260906034835 27 267 4.8 12.9 0.00 0.00 0.00 33 1017.5
20260906034738 27 300 4.8 12.9 0.00 0.00 0.00 32 1017.5
20260906034652 27 264 6.4 12.9 0.00 0.00 0.00 33 1017.4
20260906034643 27 305 6.4 12.9 0.00 0.00 0.00 32 1017.5
20260906034443 27 278 6.4 12.9 0.00 0.00 0.00 32 1017.4
20260906034326 27 272 4.8 9.7 0.00 0.00 0.00 32 1017.5
20260906034230 27 278 3.2 9.7 0.00 0.00 0.00 32 1017.4
20260906034145 27 292 3.2 8.0 0.00 0.00 0.00 32 1017.5
20260906034041 27 285 4.8 8.0 0.00 0.00 0.00 32 1017.4
20260906033924 27 292 3.2 8.0 0.00 0.00 0.00 32 1017.4
20260906033824 27 302 3.2 6.4 0.00 0.00 0.00 32 1017.5
20260906033739 27 296 3.2 6.4 0.00 0.00 0.00 32 1017.4
20260906033642 27 281 3.2 6.4 0.00 0.00 0.00 32 1017.4
20260906033534 27 257 3.2 6.4 0.00 0.00 0.00 32 1017.5
20260906033418 27 279 3.2 6.4 0.00 0.00 0.00 32 1017.4
20260906033329 27 266 3.2 6.4 0.00 0.00 0.00 32 1017.5
20260906033230 27 287 1.6 6.4 0.00 0.00 0.00 32 1017.5
20260906033203 27 261 1.6 6.4 0.00 0.00 0.00 32 1017.5
20260906033143 27 321 1.6 6.4 0.00 0.00 0.00 32 1017.4
20260906032943 27 290 1.6 6.4 0.00 0.00 0.00 31 1017.4
20260906032819 27 321 1.6 8.0 0.00 0.00 0.00 32 1017.5
20260906032738 27 298 1.6 8.0 0.00 0.00 0.00 31 1017.4
20260906032644 27 309 1.6 8.0 0.00 0.00 0.00 31 1017.4
20260906032537 27 273 1.6 8.0 0.00 0.00 0.00 31 1017.5
20260906032428 27 279 3.2 9.7 0.00 0.00 0.00 31 1017.4
20260906032325 27 310 4.8 9.7 0.00 0.00 0.00 31 1017.5
20260906032243 27 287 3.2 9.7 0.00 0.00 0.00 31 1017.4
20260906032135 27 284 4.8 9.7 0.00 0.00 0.00 31 1017.4
20260906032019 27 275 4.8 9.7 0.00 0.00 0.00 32 1017.4
20260906031919 27 314 4.8 9.7 0.00 0.00 0.00 31 1017.4
20260906031824 27 302 4.8 9.7 0.00 0.00 0.00 31 1017.4
20260906031725 27 307 4.8 9.7 0.00 0.00 0.00 31 1017.5
20260906031650 27 321 3.2 6.4 0.00 0.00 0.00 31 1017.5
20260906031630 27 311 3.2 6.4 0.00 0.00 0.00 31 1017.4
20260906031423 27 283 3.2 6.4 0.00 0.00 0.00 31 1017.4
20260906031330 27 296 1.6 4.8 0.00 0.00 0.00 31 1017.4
20260906031241 27 298 1.6 4.8 0.00 0.00 0.00 31 1017.4
20260906031127 27 253 3.2 4.8 0.00 0.00 0.00 31 1017.4
20260906031032 27 257 3.2 6.4 0.00 0.00 0.00 31 1017.3
20260906030942 27 274 1.6 6.4 0.00 0.00 0.00 31 1017.3
20260906030836 27 280 1.6 6.4 0.00 0.00 0.00 31 1017.2
20260906030734 27 292 1.6 6.4 0.00 0.00 0.00 31 1017.2
20260906030639 27 313 0.0 6.4 0.00 0.00 0.00 31 1017.3
20260906030542 27 290 0.0 6.4 0.00 0.00 0.00 31 1017.2
20260906030422 27 300 0.0 6.4 0.00 0.00 0.00 31 1017.2
20260906030332 27 306 1.6 6.4 0.00 0.00 0.00 31 1017.2
20260906030228 27 317 3.2 6.4 0.00 0.00 0.00 30 1017.2
20260906030220 27 343 3.2 6.4 0.00 0.00 0.00 30 1017.2
20260906030207 27 5 3.2 6.4 0.00 0.00 0.00 30 1017.1
20260906025941 27 360 1.6 6.4 0.00 0.00 0.00 30 1017.2
20260906025831 27 344 1.6 6.4 0.00 0.00 0.00 30 1017.2
20260906025733 27 329 1.6 4.8 0.00 0.00 0.00 30 1017.0
20260906025635 27 343 1.6 4.8 0.00 0.00 0.00 30 1017.0
20260906025524 27 351 1.6 4.8 0.00 0.00 0.00 30 1016.8
20260906025443 28 9 1.6 4.8 0.00 0.00 0.00 30 1016.7
20260906025343 28 12 1.6 4.8 0.00 0.00 0.00 30 1016.7
20260906025232 28 5 1.6 4.8 0.00 0.00 0.00 30 1016.7
20260906025126 28 5 3.2 4.8 0.00 0.00 0.00 30 1016.7
20260906025024 28 5 3.2 4.8 0.00 0.00 0.00 30 1016.6
20260906024943 28 352 3.2 4.8 0.00 0.00 0.00 29 1016.6
20260906024840 28 13 1.6 8.0 0.00 0.00 0.00 29 1016.6
20260906024719 28 11 1.6 8.0 0.00 0.00 0.00 29 1016.6
20260906024642 28 355 0.0 8.0 0.00 0.00 0.00 29 1016.5
20260906024433 28 344 0.0 8.0 0.00 0.00 0.00 29 1016.6
20260906024322 28 330 1.6 8.0 0.00 0.00 0.00 28 1016.5
20260906024218 28 298 3.2 8.0 0.00 0.00 0.00 28 1016.5
20260906024124 28 273 4.8 8.0 0.00 0.00 0.00 29 1016.5
20260906024024 28 296 4.8 11.3 0.00 0.00 0.00 28 1016.5
20260906023936 28 310 3.2 14.5 0.00 0.00 0.00 28 1016.6
20260906023842 28 303 3.2 14.5 0.00 0.00 0.00 28 1016.5
20260906023742 28 296 4.8 14.5 0.00 0.00 0.00 28 1016.5
20260906023625 28 306 4.8 14.5 0.00 0.00 0.00 28 1016.6
20260906023531 28 306 3.2 14.5 0.00 0.00 0.00 28 1016.5
20260906023427 28 277 3.2 14.5 0.00 0.00 0.00 28 1016.5
20260906023330 28 267 4.8 14.5 0.00 0.00 0.00 28 1016.6
20260906023243 28 280 6.4 14.5 0.00 0.00 0.00 28 1016.5
20260906023149 28 277 6.4 14.5 0.00 0.00 0.00 28 1016.6
20260906023141 28 302 6.4 11.3 0.00 0.00 0.00 28 1016.7
20260906022921 28 284 4.8 11.3 0.00 0.00 0.00 28 1016.7
20260906022835 28 239 4.8 8.0 0.00 0.00 0.00 28 1016.6
20260906022725 28 290 4.8 11.3 0.00 0.00 0.00 28 1016.7
20260906022619 28 269 4.8 11.3 0.00 0.00 0.00 28 1016.7
20260906022542 28 304 3.2 11.3 0.00 0.00 0.00 28 1016.7
20260906022429 28 251 3.2 11.3 0.00 0.00 0.00 28 1016.7
20260906022323 28 276 4.8 11.3 0.00 0.00 0.00 28 1016.7
20260906022240 28 260 3.2 12.9 0.00 0.00 0.00 28 1016.7
20260906022117 28 279 3.2 12.9 0.00 0.00 0.00 28 1016.7
20260906022036 28 293 4.8 12.9 0.00 0.00 0.00 28 1016.7
20260906021927 28 297 4.8 12.9 0.00 0.00 0.00 28 1016.7
20260906021825 28 269 1.6 12.9 0.00 0.00 0.00 28 1016.7
20260906021724 28 268 0.0 12.9 0.00 0.00 0.00 28 1016.7
20260906021649 28 257 1.6 12.9 0.00 0.00 0.00 28 1016.6
20260906021608 28 269 4.8 12.9 0.00 0.00 0.00 28 1016.7
20260906021426 28 292 4.8 12.9 0.00 0.00 0.00 28 1016.5
20260906021333 28 267 4.8 12.9 0.00 0.00 0.00 28 1016.6
20260906021217 29 252 6.4 12.9 0.00 0.00 0.00 28 1016.5
20260906021140 29 291 6.4 12.9 0.00 0.00 0.00 28 1016.5
20260906021035 29 284 4.8 11.3 0.00 0.00 0.00 28 1016.5
20260906020916 29 246 4.8 11.3 0.00 0.00 0.00 28 1016.5
20260906020817 29 214 3.2 11.3 0.00 0.00 0.00 28 1016.5
20260906020732 29 242 3.2 11.3 0.00 0.00 0.00 28 1016.4
20260906020631 29 260 3.2 11.3 0.00 0.00 0.00 28 1016.5
20260906020518 29 246 4.8 11.3 0.00 0.00 0.00 28 1016.5
20260906020433 29 254 4.8 11.3 0.00 0.00 0.00 28 1016.4
20260906020328 29 234 3.2 11.3 0.00 0.00 0.00 27 1016.4
20260906020224 29 150 3.2 11.3 0.00 0.00 0.00 28 1016.5
20260906020213 29 204 1.6 11.3 0.00 0.00 0.00 27 1016.4
20260906020124 29 180 3.2 11.3 0.00 0.00 0.00 27 1016.5
20260906015917 29 193 6.4 11.3 0.00 0.00 0.00 27 1016.5
20260906015827 29 217 6.4 12.9 0.00 0.00 0.00 28 1016.4
20260906015722 29 182 6.4 12.9 0.00 0.00 0.00 27 1016.5
20260906015619 29 186 6.4 12.9 0.00 0.00 0.00 27 1016.5
20260906015542 29 205 6.4 14.5 0.00 0.00 0.00 27 1016.5
20260906015433 29 209 6.4 14.5 0.00 0.00 0.00 27 1016.5
20260906015317 29 217 4.8 14.5 0.00 0.00 0.00 27 1016.5
20260906015233 29 180 6.4 14.5 0.00 0.00 0.00 27 1016.5
20260906015129 29 198 6.4 14.5 0.00 0.00 0.00 27 1016.3
20260906015024 29 199 6.4 14.5 0.00 0.00 0.00 27 1016.5
20260906014940 29 250 4.8 14.5 0.00 0.00 0.00 27 1016.3
20260906014833 29 169 6.4 14.5 0.00 0.00 0.00 27 1016.4
20260906014731 30 226 8.0 14.5 0.00 0.00 0.00 27 1016.4
20260906014705 30 218 8.0 14.5 0.00 0.00 0.00 27 1016.3
20260906014657 30 242 8.0 14.5 0.00 0.00 0.00 27 1016.3
20260906014420 30 186 8.0 19.3 0.00 0.00 0.00 26 1016.3
20260906014317 30 199 8.0 19.3 0.00 0.00 0.00 26 1016.3
20260906014220 30 186 4.8 19.3 0.00 0.00 0.00 26 1016.3
20260906014125 30 235 3.2 19.3 0.00 0.00 0.00 27 1016.2
20260906014034 30 213 6.4 19.3 0.00 0.00 0.00 26 1016.1
20260906013920 30 201 9.7 19.3 0.00 0.00 0.00 26 1016.0
20260906013842 30 245 9.7 19.3 0.00 0.00 0.00 26 1016.1
20260906013743 30 232 8.0 19.3 0.00 0.00 0.00 26 1016.1
20260906013645 30 180 9.7 19.3 0.00 0.00 0.00 26 1016.0
20260906013526 30 240 6.4 17.7 0.00 0.00 0.00 26 1016.1
20260906013444 30 255 4.8 14.5 0.00 0.00 0.00 26 1016.0
20260906013323 30 248 4.8 14.5 0.00 0.00 0.00 26 1016.0
20260906013235 30 252 4.8 17.7 0.00 0.00 0.00 26 1016.0
20260906013203 30 251 6.4 17.7 0.00 0.00 0.00 26 1015.9
20260906013148 30 276 4.8 19.3 0.00 0.00 0.00 25 1016.0
20260906012917 30 276 4.8 19.3 0.00 0.00 0.00 25 1016.0
20260906012827 30 267 4.8 19.3 0.00 0.00 0.00 25 1016.0
20260906012729 30 205 4.8 20.9 0.00 0.00 0.00 25 1016.0
20260906012619 30 202 4.8 25.7 0.00 0.00 0.00 25 1016.0
20260906012531 30 227 8.0 25.7 0.00 0.00 0.00 25 1016.0
20260906012438 30 233 11.3 25.7 0.00 0.00 0.00 25 1016.1
20260906012341 30 298 11.3 25.7 0.00 0.00 0.00 25 1016.1
20260906012233 31 272 12.9 25.7 0.00 0.00 0.00 25 1016.1
20260906012137 31 231 11.3 25.7 0.00 0.00 0.00 24 1016.1
20260906012032 31 269 9.7 25.7 0.00 0.00 0.00 24 1016.2
20260906011943 31 258 12.9 25.7 0.00 0.00 0.00 24 1016.1
20260906011832 31 248 14.5 25.7 0.00 0.00 0.00 24 1016.2
20260906011718 31 279 8.0 22.5 0.00 0.00 0.00 24 1016.2
20260906011656 31 305 8.0 20.9 0.00 0.00 0.00 23 1016.1
20260906011431 31 196 8.0 20.9 0.00 0.00 0.00 23 1016.2
20260906011326 31 236 8.0 20.9 0.00 0.00 0.00 23 1016.2
20260906011243 31 248 11.3 20.9 0.00 0.00 0.00 23 1016.1
20260906011142 31 293 12.9 20.9 0.00 0.00 0.00 23 1016.1
20260906011038 31 238 9.7 20.9 0.00 0.00 0.00 23 1016.1
20260906010938 31 244 6.4 19.3 0.00 0.00 0.00 23 1016.0
20260906010827 31 252 8.0 19.3 0.00 0.00 0.00 23 1016.0
20260906010739 31 236 8.0 19.3 0.00 0.00 0.00 23 1016.0
20260906010642 31 231 8.0 19.3 0.00 0.00 0.00 23 1016.0
20260906010527 31 244 9.7 19.3 0.00 0.00 0.00 23 1016.0
20260906010434 31 234 9.7 19.3 0.00 0.00 0.00 23 1016.0
20260906010335 31 279 11.3 17.7 0.00 0.00 0.00 23 1016.1
20260906010223 31 291 11.3 17.7 0.00 0.00 0.00 23 1016.0
20260906010201 31 260 9.7 14.5 0.00 0.00 0.00 23 1016.1
20260906010131 31 279 6.4 12.9 0.00 0.00 0.00 23 1016.1
20260906005921 31 265 4.8 9.7 0.00 0.00 0.00 23 1016.1
20260906005821 31 279 4.8 9.7 0.00 0.00 0.00 23 1016.1
20260906005728 31 263 4.8 9.7 0.00 0.00 0.00 23 1016.1
20260906005620 31 220 4.8 9.7 0.00 0.00 0.00 23 1016.1
20260906005539 31 220 4.8 9.7 0.00 0.00 0.00 23 1016.1
20260906005432 31 150 4.8 8.0 0.00 0.00 0.00 23 1016.1
20260906005321 31 207 3.2 9.7 0.00 0.00 0.00 23 1016.1
20260906005237 31 153 3.2 9.7 0.00 0.00 0.00 23 1016.1
20260906005124 31 175 1.6 9.7 0.00 0.00 0.00 23 1016.1
20260906005021 31 171 3.2 9.7 0.00 0.00 0.00 23 1016.2
20260906004935 31 162 3.2 9.7 0.00 0.00 0.00 23 1016.1
20260906004823 31 178 3.2 9.7 0.00 0.00 0.00 23 1016.2
20260906004727 31 200 4.8 9.7 0.00 0.00 0.00 23 1016.0
20260906004656 31 184 4.8 11.3 0.00 0.00 0.00 23 1016.1
20260906004627 31 178 4.8 12.9 0.00 0.00 0.00 23 1016.1
20260906004441 31 182 4.8 12.9 0.00 0.00 0.00 23 1016.2
20260906004338 31 159 3.2 12.9 0.00 0.00 0.00 22 1016.1
20260906004233 32 183 3.2 12.9 0.00 0.00 0.00 23 1016.2
20260906004142 32 178 4.8 12.9 0.00 0.00 0.00 23 1016.1
20260906004030 32 171 6.4 12.9 0.00 0.00 0.00 23 1016.1
20260906003926 32 170 8.0 12.9 0.00 0.00 0.00 22 1016.1
20260906003828 32 178 8.0 12.9 0.00 0.00 0.00 22 1016.2
20260906003726 32 155 6.4 12.9 0.00 0.00 0.00 22 1016.2
20260906003637 32 219 8.0 12.9 0.00 0.00 0.00 22 1016.2
20260906003518 32 165 9.7 12.9 0.00 0.00 0.00 22 1016.1
20260906003435 32 167 8.0 12.9 0.00 0.00 0.00 22 1016.1
20260906003327 32 166 6.4 11.3 0.00 0.00 0.00 22 1016.1
20260906003243 32 165 4.8 11.3 0.00 0.00 0.00 22 1016.1
20260906003157 32 153 3.2 9.7 0.00 0.00 0.00 22 1016.2
20260906003142 32 198 3.2 9.7 0.00 0.00 0.00 22 1016.2
20260906002941 32 194 3.2 9.7 0.00 0.00 0.00 22 1016.2
20260906002837 32 143 3.2 9.7 0.00 0.00 0.00 22 1016.1
20260906002727 32 183 3.2 11.3 0.00 0.00 0.00 22 1016.2
20260906002642 32 205 1.6 11.3 0.00 0.00 0.00 22 1016.2
20260906002523 32 232 1.6 11.3 0.00 0.00 0.00 22 1016.2
20260906002430 32 157 3.2 11.3 0.00 0.00 0.00 22 1016.2
20260906002342 32 190 3.2 11.3 0.00 0.00 0.00 22 1016.3
20260906002228 32 176 4.8 11.3 0.00 0.00 0.00 22 1016.3
20260906002118 32 184 4.8 11.3 0.00 0.00 0.00 22 1016.2
20260906002030 32 145 4.8 11.3 0.00 0.00 0.00 22 1016.3
20260906001924 32 159 4.8 11.3 0.00 0.00 0.00 22 1016.3
20260906001831 32 155 3.2 11.3 0.00 0.00 0.00 22 1016.3
20260906001716 32 159 1.6 11.3 0.00 0.00 0.00 22 1016.3
20260906001649 32 205 3.2 11.3 0.00 0.00 0.00 22 1016.2
20260906001427 32 192 4.8 11.3 0.00 0.00 0.00 22 1016.3
20260906001324 32 220 4.8 11.3 0.00 0.00 0.00 22 1016.3
20260906001227 32 175 4.8 11.3 0.00 0.00 0.00 22 1016.2
20260906001132 32 197 6.4 11.3 0.00 0.00 0.00 22 1016.3
20260906001034 32 157 6.4 11.3 0.00 0.00 0.00 22 1016.2
20260906000924 32 159 4.8 11.3 0.00 0.00 0.00 22 1016.2
20260906000828 32 150 4.8 8.0 0.00 0.00 0.00 22 1016.2
20260906000743 32 215 4.8 8.0 0.00 0.00 0.00 22 1016.1
20260906000642 32 210 3.2 8.0 0.00 0.00 0.00 22 1016.1
20260906000531 32 160 3.2 8.0 0.00 0.00 0.00 22 1016.1
20260906000435 32 174 3.2 8.0 0.00 0.00 0.00 22 1016.1
20260906000342 32 205 3.2 8.0 0.00 0.00 0.00 22 1016.1
20260906000221 32 192 3.2 8.0 0.00 0.00 0.00 22 1016.1
20260906000136 32 206 1.6 11.3 0.00 0.00 0.00 22 1016.1
20260905235929 32 255 1.6 11.3 0.00 0.00 0.00 22 1016.2
20260905235824 32 187 3.2 11.3 0.00 0.00 0.00 22 1016.2
20260905235730 32 236 3.2 11.3 0.00 0.00 0.00 22 1016.1
20260905235617 32 214 3.2 11.3 0.00 0.00 0.00 22 1016.1
20260905235534 32 220 4.8 11.3 0.00 0.00 0.00 22 1016.2
20260905235441 32 212 6.4 11.3 0.00 0.00 0.00 22 1016.1
20260905235324 32 277 6.4 12.9 0.00 0.00 0.00 22 1016.2
20260905235227 32 257 6.4 12.9 0.00 0.00 0.00 22 1016.1
20260905235121 32 268 4.8 12.9 0.00 0.00 0.00 22 1016.2
20260905235034 32 241 3.2 12.9 0.00 0.00 0.00 22 1016.2
20260905234943 32 265 1.6 12.9 0.00 0.00 0.00 22 1016.2
20260905234839 32 175 1.6 12.9 0.00 0.00 0.00 22 1016.2
20260905234742 32 205 3.2 12.9 0.00 0.00 0.00 22 1016.2
20260905234702 32 158 4.8 12.9 0.00 0.00 0.00 22 1016.3
20260905234633 32 167 6.4 11.3 0.00 0.00 0.00 22 1016.4
20260905234425 32 213 6.4 11.3 0.00 0.00 0.00 22 1016.2
20260905234331 32 197 4.8 11.3 0.00 0.00 0.00 22 1016.2
20260905234226 32 293 4.8 11.3 0.00 0.00 0.00 22 1016.2
20260905234143 32 262 3.2 9.7 0.00 0.00 0.00 22 1016.3
20260905234025 32 286 4.8 9.7 0.00 0.00 0.00 22 1016.3
20260905233936 32 241 4.8 9.7 0.00 0.00 0.00 21 1016.3
20260905233824 32 195 3.2 11.3 0.00 0.00 0.00 22 1016.2
20260905233737 32 222 3.2 11.3 0.00 0.00 0.00 22 1016.3
20260905233641 32 202 4.8 11.3 0.00 0.00 0.00 21 1016.3
20260905233518 32 241 4.8 11.3 0.00 0.00 0.00 22 1016.3
20260905233443 32 267 3.2 11.3 0.00 0.00 0.00 21 1016.2
20260905233344 32 246 1.6 11.3 0.00 0.00 0.00 22 1016.3
20260905233230 32 282 0.0 9.7 0.00 0.00 0.00 22 1016.2
20260905233201 32 277 1.6 9.7 0.00 0.00 0.00 22 1016.3
20260905233150 32 253 3.2 9.7 0.00 0.00 0.00 21 1016.1
20260905232925 32 276 3.2 9.7 0.00 0.00 0.00 22 1016.2
20260905232823 32 267 4.8 9.7 0.00 0.00 0.00 21 1016.1
20260905232727 32 248 4.8 9.7 0.00 0.00 0.00 21 1016.1
20260905232619 32 300 4.8 9.7 0.00 0.00 0.00 21 1016.1
20260905232544 32 291 4.8 8.0 0.00 0.00 0.00 21 1016.0
20260905232436 32 292 4.8 8.0 0.00 0.00 0.00 21 1016.1
20260905232324 32 246 3.2 8.0 0.00 0.00 0.00 21 1016.1
20260905232227 32 225 1.6 8.0 0.00 0.00 0.00 21 1016.1
20260905232117 32 251 1.6 8.0 0.00 0.00 0.00 22 1016.3
20260905232042 32 279 1.6 8.0 0.00 0.00 0.00 21 1016.3
20260905231931 32 254 3.2 8.0 0.00 0.00 0.00 22 1016.3
20260905231823 32 325 1.6 8.0 0.00 0.00 0.00 22 1016.3
20260905231731 32 306 0.0 6.4 0.00 0.00 0.00 21 1016.3
20260905231704 32 311 0.0 6.4 0.00 0.00 0.00 21 1016.3
20260905231629 32 320 0.0 6.4 0.00 0.00 0.00 21 1016.2
20260905231425 32 308 1.6 6.4 0.00 0.00 0.00 21 1016.3
20260905231324 32 292 3.2 6.4 0.00 0.00 0.00 21 1016.2
20260905231224 32 287 3.2 6.4 0.00 0.00 0.00 21 1016.1
20260905231134 32 343 1.6 6.4 0.00 0.00 0.00 21 1016.1
20260905231039 32 338 1.6 6.4 0.00 0.00 0.00 22 1016.2
20260905230930 32 279 3.2 6.4 0.00 0.00 0.00 22 1016.1
20260905230831 32 315 3.2 6.4 0.00 0.00 0.00 22 1016.1
20260905230724 32 323 1.6 6.4 0.00 0.00 0.00 22 1016.1
20260905230639 32 350 1.6 6.4 0.00 0.00 0.00 22 1016.1
20260905230532 32 243 3.2 6.4 0.00 0.00 0.00 22 1016.1
20260905230418 32 216 3.2 6.4 0.00 0.00 0.00 22 1016.1
20260905230330 32 243 1.6 4.8 0.00 0.00 0.00 22 1016.1
20260905230216 32 244 0.0 6.4 0.00 0.00 0.00 22 1016.1
20260905230200 32 301 0.0 6.4 0.00 0.00 0.00 22 1016.0
20260905225941 32 309 0.0 6.4 0.00 0.00 0.00 22 1016.1
20260905225834 32 311 0.0 6.4 0.00 0.00 0.00 22 1016.0
20260905225720 32 319 0.0 6.4 0.00 0.00 0.00 22 1016.0
20260905225633 32 327 1.6 11.3 0.00 0.00 0.00 22 1016.0
20260905225525 32 350 1.6 11.3 0.00 0.00 0.00 22 1016.0
20260905225429 32 341 1.6 11.3 0.00 0.00 0.00 22 1016.0
20260905225340 32 311 1.6 11.3 0.00 0.00 0.00 22 1016.0
20260905225235 32 314 0.0 11.3 0.00 0.00 0.00 22 1016.0
20260905225139 32 327 1.6 11.3 0.00 0.00 0.00 22 1016.0
20260905225042 32 317 3.2 11.3 0.00 0.00 0.00 22 1016.0
20260905224935 32 244 3.2 11.3 0.00 0.00 0.00 22 1016.0
20260905224841 32 263 4.8 11.3 0.00 0.00 0.00 22 1016.0
20260905224721 32 259 3.2 9.7 0.00 0.00 0.00 22 1016.0
20260905224645 32 202 4.8 9.7 0.00 0.00 0.00 22 1016.0
20260905224437 32 209 4.8 9.7 0.00 0.00 0.00 22 1016.0
20260905224328 32 196 3.2 4.8 0.00 0.00 0.00 22 1016.0
20260905224229 32 242 3.2 4.8 0.00 0.00 0.00 22 1016.1
20260905224128 32 228 1.6 4.8 0.00 0.00 0.00 22 1016.1
20260905224024 32 234 0.0 3.2 0.00 0.00 0.00 22 1016.1
20260905223935 32 9 0.0 3.2 0.00 0.00 0.00 22 1016.0
20260905223823 32 9 0.0 4.8 0.00 0.00 0.00 22 1016.1
20260905223738 32 5 0.0 6.4 0.00 0.00 0.00 22 1016.1
20260905223629 32 15 0.0 8.0 0.00 0.00 0.00 22 1016.1
20260905223541 32 28 0.0 8.0 0.00 0.00 0.00 22 1016.1
20260905223431 32 121 0.0 8.0 0.00 0.00 0.00 22 1016.1
20260905223319 32 131 0.0 8.0 0.00 0.00 0.00 22 1016.2
20260905223217 32 143 0.0 8.0 0.00 0.00 0.00 22 1016.3
20260905223203 32 176 1.6 8.0 0.00 0.00 0.00 22 1016.3
20260905223155 32 175 3.2 8.0 0.00 0.00 0.00 22 1016.2
20260905222931 32 194 6.4 8.0 0.00 0.00 0.00 22 1016.1
20260905222826 32 198 6.4 8.0 0.00 0.00 0.00 22 1016.1
20260905222721 32 182 4.8 11.3 0.00 0.00 0.00 22 1016.2
20260905222624 32 239 4.8 11.3 0.00 0.00 0.00 22 1016.3
20260905222522 32 242 6.4 11.3 0.00 0.00 0.00 22 1016.3
20260905222418 32 259 4.8 16.1 0.00 0.00 0.00 22 1016.3
20260905222325 32 279 3.2 16.1 0.00 0.00 0.00 22 1016.3
20260905222223 32 310 1.6 16.1 0.00 0.00 0.00 22 1016.4
20260905222137 32 239 3.2 16.1 0.00 0.00 0.00 22 1016.4
20260905222034 32 244 4.8 16.1 0.00 0.00 0.00 22 1016.4
20260905221924 32 242 4.8 16.1 0.00 0.00 0.00 22 1016.5
20260905221839 32 186 4.8 16.1 0.00 0.00 0.00 22 1016.4
20260905221722 32 219 8.0 16.1 0.00 0.00 0.00 22 1016.5
20260905221719 32 235 8.0 16.1 0.00 0.00 0.00 22 1016.5
20260905221649 32 242 6.4 14.5 0.00 0.00 0.00 22 1016.4
20260905221438 32 272 9.7 14.5 0.00 0.00 0.00 22 1016.5
20260905221336 32 261 8.0 14.5 0.00 0.00 0.00 22 1016.5
20260905221244 32 246 4.8 17.7 0.00 0.00 0.00 23 1016.5
20260905221143 32 242 1.6 17.7 0.00 0.00 0.00 23 1016.5
20260905221025 32 299 1.6 17.7 0.00 0.00 0.00 22 1016.5
20260905220918 32 336 3.2 17.7 0.00 0.00 0.00 22 1016.5
20260905220818 32 273 6.4 17.7 0.00 0.00 0.00 22 1016.5
20260905220727 32 250 8.0 17.7 0.00 0.00 0.00 22 1016.5
20260905220624 32 234 9.7 17.7 0.00 0.00 0.00 22 1016.5